Time,TemperatureF,DewpointF,PressureIn,WindDirection,WindDirectionDegrees,WindSpeedMPH,WindSpeedGustMPH,Humidity,HourlyPrecipIn,Conditions,Clouds,dailyrainin,SoftwareType,DateUTC
2013-05-19 00:01:00,77.0,75.0,29.86,SSE,157,16.0,16.0,93,0.00,,,0.00,TxWx,2013-05-19 05:01:00,
2013-05-19 00:03:00,77.0,75.0,29.86,SSW,202,8.0,10.0,93,0.00,,,0.00,TxWx,2013-05-19 05:03:00,
2013-05-19 00:05:00,77.0,75.0,29.86,SSE,157,13.0,13.0,93,0.00,,,0.00,TxWx,2013-05-19 05:05:00,
2013-05-19 00:06:00,77.0,75.0,29.86,SSE,157,8.0,8.0,93,0.00,,,0.00,TxWx,2013-05-19 05:06:00,
2013-05-19 00:08:00,77.0,75.0,29.86,SSE,157,11.0,11.0,93,0.00,,,0.00,TxWx,2013-05-19 05:08:00,
2013-05-19 00:10:00,77.0,75.0,29.86,SW,225,5.0,5.0,93,0.00,,,0.00,TxWx,2013-05-19 05:10:00,
2013-05-19 00:12:00,77.0,75.0,29.86,SSE,157,11.0,11.0,93,0.00,,,0.00,TxWx,2013-05-19 05:12:00,
2013-05-19 00:13:00,77.0,75.0,29.86,SSE,157,8.0,9.0,93,0.00,,,0.00,TxWx,2013-05-19 05:13:00,
2013-05-19 00:15:00,77.0,75.0,29.86,SE,135,8.0,10.0,93,0.00,,,0.00,TxWx,2013-05-19 05:15:00,
2013-05-19 00:18:00,77.0,75.0,29.86,South,180,15.0,17.0,93,0.00,,,0.00,TxWx,2013-05-19 05:18:00,
2013-05-19 00:19:00,77.0,75.0,29.86,South,180,19.0,19.0,93,0.00,,,0.00,TxWx,2013-05-19 05:19:00,
2013-05-19 00:20:00,77.0,75.0,29.85,SSE,157,10.0,11.0,93,0.00,,,0.00,TxWx,2013-05-19 05:20:00,
2013-05-19 00:21:00,77.0,75.0,29.85,SE,135,9.0,9.0,93,0.00,,,0.00,TxWx,2013-05-19 05:21:00,
2013-05-19 00:24:00,77.0,75.0,29.85,SE,135,14.0,15.0,93,0.00,,,0.00,TxWx,2013-05-19 05:24:00,
2013-05-19 00:25:00,77.0,75.0,29.85,SSE,157,9.0,10.0,93,0.00,,,0.00,TxWx,2013-05-19 05:25:00,
2013-05-19 00:26:00,77.0,75.0,29.85,SSE,157,10.0,11.0,93,0.00,,,0.00,TxWx,2013-05-19 05:26:00,
2013-05-19 00:28:00,77.0,75.0,29.85,SSW,202,13.0,13.0,93,0.00,,,0.00,TxWx,2013-05-19 05:28:00,
2013-05-19 00:29:00,77.0,75.0,29.85,SSE,157,16.0,16.0,93,0.00,,,0.00,TxWx,2013-05-19 05:29:00,
2013-05-19 00:31:00,77.0,75.0,29.85,South,180,13.0,13.0,93,0.00,,,0.00,TxWx,2013-05-19 05:31:00,
2013-05-19 00:32:00,77.0,75.0,29.85,SSE,157,11.0,11.0,93,0.00,,,0.00,TxWx,2013-05-19 05:32:00,
2013-05-19 00:34:00,77.0,76.0,29.85,SSE,157,8.0,9.0,93,0.00,,,0.00,TxWx,2013-05-19 05:34:00,
2013-05-19 00:35:00,78.0,76.0,29.85,SSE,157,16.0,16.0,93,0.00,,,0.00,TxWx,2013-05-19 05:35:00,
2013-05-19 00:36:00,78.0,76.0,29.85,SSW,202,16.0,16.0,93,0.00,,,0.00,TxWx,2013-05-19 05:36:00,
2013-05-19 00:37:00,77.0,75.0,29.85,SSE,157,8.0,9.0,93,0.00,,,0.00,TxWx,2013-05-19 05:37:00,
2013-05-19 00:38:00,77.0,75.0,29.85,South,180,16.0,16.0,93,0.00,,,0.00,TxWx,2013-05-19 05:38:00,
2013-05-19 00:40:00,78.0,76.0,29.86,SSE,157,10.0,12.0,93,0.00,,,0.00,TxWx,2013-05-19 05:40:00,
2013-05-19 00:42:00,77.0,75.0,29.85,South,180,11.0,11.0,93,0.00,,,0.00,TxWx,2013-05-19 05:42:00,
2013-05-19 00:43:00,78.0,76.0,29.85,SSW,202,8.0,10.0,93,0.00,,,0.00,TxWx,2013-05-19 05:43:00,
2013-05-19 00:44:00,77.0,75.0,29.85,SSE,157,17.0,17.0,93,0.00,,,0.00,TxWx,2013-05-19 05:44:00,
2013-05-19 00:45:00,77.0,75.0,29.85,SSW,202,10.0,13.0,93,0.00,,,0.00,TxWx,2013-05-19 05:45:00,
2013-05-19 00:48:00,77.0,75.0,29.84,South,180,13.0,13.0,93,0.00,,,0.00,TxWx,2013-05-19 05:48:00,
2013-05-19 00:50:00,77.0,75.0,29.84,SSW,202,19.0,19.0,93,0.00,,,0.00,TxWx,2013-05-19 05:50:00,
2013-05-19 00:51:00,77.0,75.0,29.84,SE,135,16.0,19.0,93,0.00,,,0.00,TxWx,2013-05-19 05:51:00,
2013-05-19 00:52:00,77.0,75.0,29.84,South,180,11.0,14.0,93,0.00,,,0.00,TxWx,2013-05-19 05:52:00,
2013-05-19 00:53:00,77.0,75.0,29.84,SE,135,14.0,16.0,93,0.00,,,0.00,TxWx,2013-05-19 05:53:00,
2013-05-19 00:55:00,77.0,75.0,29.83,South,180,15.0,15.0,93,0.00,,,0.00,TxWx,2013-05-19 05:55:00,
2013-05-19 00:57:00,77.0,75.0,29.83,South,180,14.0,14.0,93,0.00,,,0.00,TxWx,2013-05-19 05:57:00,
2013-05-19 00:58:00,77.0,75.0,29.83,South,180,11.0,13.0,93,0.00,,,0.00,TxWx,2013-05-19 05:58:00,
2013-05-19 00:59:00,77.0,75.0,29.83,SSE,157,8.0,10.0,93,0.00,,,0.00,TxWx,2013-05-19 05:59:00,
2013-05-19 01:00:00,77.0,75.0,29.83,SSW,202,7.0,8.0,93,0.00,,,0.00,TxWx,2013-05-19 06:00:00,
2013-05-19 01:01:00,77.0,75.0,29.83,South,180,13.0,13.0,93,0.00,,,0.00,TxWx,2013-05-19 06:01:00,
2013-05-19 01:02:00,77.0,75.0,29.83,SSW,202,13.0,14.0,93,0.00,,,0.00,TxWx,2013-05-19 06:02:00,
2013-05-19 01:04:00,77.0,75.0,29.83,SSE,157,16.0,18.0,93,0.00,,,0.00,TxWx,2013-05-19 06:04:00,
2013-05-19 01:07:00,78.0,76.0,29.84,South,180,14.0,14.0,93,0.00,,,0.00,TxWx,2013-05-19 06:07:00,
2013-05-19 01:08:00,78.0,76.0,29.83,SE,135,9.0,9.0,93,0.00,,,0.00,TxWx,2013-05-19 06:08:00,
2013-05-19 01:10:00,78.0,76.0,29.83,South,180,21.0,21.0,93,0.00,,,0.00,TxWx,2013-05-19 06:10:00,
2013-05-19 01:11:00,77.0,76.0,29.83,South,180,8.0,8.0,93,0.00,,,0.00,TxWx,2013-05-19 06:11:00,
2013-05-19 01:12:00,77.0,75.0,29.84,SSE,157,12.0,12.0,93,0.00,,,0.00,TxWx,2013-05-19 06:12:00,
2013-05-19 01:13:00,77.0,75.0,29.83,SSW,202,11.0,12.0,93,0.00,,,0.00,TxWx,2013-05-19 06:13:00,
2013-05-19 01:16:00,77.0,75.0,29.83,SSW,202,14.0,15.0,93,0.00,,,0.00,TxWx,2013-05-19 06:16:00,
2013-05-19 01:17:00,77.0,75.0,29.83,South,180,14.0,14.0,93,0.00,,,0.00,TxWx,2013-05-19 06:17:00,
2013-05-19 01:18:00,77.0,75.0,29.83,South,180,8.0,13.0,93,0.00,,,0.00,TxWx,2013-05-19 06:18:00,
2013-05-19 01:19:00,77.0,75.0,29.82,SSE,157,12.0,12.0,94,0.00,,,0.00,TxWx,2013-05-19 06:19:00,
2013-05-19 01:21:00,77.0,75.0,29.83,SSE,157,11.0,11.0,94,0.00,,,0.00,TxWx,2013-05-19 06:21:00,
2013-05-19 01:23:00,77.0,75.0,29.82,SE,135,9.0,10.0,94,0.00,,,0.00,TxWx,2013-05-19 06:23:00,
2013-05-19 01:24:00,77.0,75.0,29.82,SSW,202,14.0,17.0,94,0.00,,,0.00,TxWx,2013-05-19 06:24:00,
2013-05-19 01:25:00,77.0,75.0,29.82,South,180,13.0,16.0,94,0.00,,,0.00,TxWx,2013-05-19 06:25:00,
2013-05-19 01:29:00,77.0,75.0,29.82,SSW,202,17.0,19.0,94,0.00,,,0.00,TxWx,2013-05-19 06:29:00,
2013-05-19 01:30:00,77.0,75.0,29.82,South,180,13.0,15.0,94,0.00,,,0.00,TxWx,2013-05-19 06:30:00,
2013-05-19 01:31:00,77.0,75.0,29.82,South,180,13.0,13.0,94,0.00,,,0.00,TxWx,2013-05-19 06:31:00,
2013-05-19 01:32:00,77.0,75.0,29.82,SSE,157,18.0,18.0,94,0.00,,,0.00,TxWx,2013-05-19 06:32:00,
2013-05-19 01:36:00,78.0,76.0,29.82,SSE,157,10.0,14.0,94,0.00,,,0.00,TxWx,2013-05-19 06:36:00,
2013-05-19 01:37:00,77.0,75.0,29.82,SE,135,10.0,13.0,94,0.00,,,0.00,TxWx,2013-05-19 06:37:00,
2013-05-19 01:38:00,77.0,75.0,29.82,SSE,157,11.0,11.0,94,0.00,,,0.00,TxWx,2013-05-19 06:38:00,
2013-05-19 01:39:00,78.0,76.0,29.81,SSE,157,13.0,13.0,94,0.00,,,0.00,TxWx,2013-05-19 06:39:00,
2013-05-19 01:41:00,78.0,76.0,29.81,South,180,8.0,8.0,94,0.00,,,0.00,TxWx,2013-05-19 06:41:00,
2013-05-19 01:42:00,78.0,76.0,29.81,SSW,202,11.0,11.0,94,0.00,,,0.00,TxWx,2013-05-19 06:42:00,
2013-05-19 01:43:00,78.0,76.0,29.81,South,180,18.0,18.0,94,0.00,,,0.00,TxWx,2013-05-19 06:43:00,
2013-05-19 01:44:00,78.0,76.0,29.81,SSW,202,9.0,9.0,94,0.00,,,0.00,TxWx,2013-05-19 06:44:00,
2013-05-19 01:45:00,78.0,76.0,29.81,SSE,157,16.0,16.0,94,0.00,,,0.00,TxWx,2013-05-19 06:45:00,
2013-05-19 01:47:00,78.0,76.0,29.81,SSW,202,19.0,19.0,94,0.00,,,0.00,TxWx,2013-05-19 06:47:00,
2013-05-19 01:48:00,78.0,76.0,29.81,SSW,202,15.0,15.0,94,0.00,,,0.00,TxWx,2013-05-19 06:48:00,
2013-05-19 01:49:00,78.0,76.0,29.81,SSE,157,15.0,18.0,93,0.00,,,0.00,TxWx,2013-05-19 06:49:00,
2013-05-19 01:51:00,78.0,76.0,29.81,SSE,157,17.0,20.0,93,0.00,,,0.00,TxWx,2013-05-19 06:51:00,
2013-05-19 01:54:00,78.0,76.0,29.81,SSE,157,11.0,11.0,94,0.00,,,0.00,TxWx,2013-05-19 06:54:00,
2013-05-19 01:55:00,78.0,76.0,29.81,South,180,18.0,18.0,94,0.00,,,0.00,TxWx,2013-05-19 06:55:00,
2013-05-19 01:56:00,78.0,76.0,29.81,SSE,157,20.0,20.0,94,0.00,,,0.00,TxWx,2013-05-19 06:56:00,
2013-05-19 01:59:00,78.0,76.0,29.81,SSE,157,13.0,14.0,94,0.00,,,0.00,TxWx,2013-05-19 06:59:00,
2013-05-19 02:02:00,78.0,76.0,29.80,South,180,10.0,10.0,94,0.00,,,0.00,TxWx,2013-05-19 07:02:00,
2013-05-19 02:03:00,78.0,76.0,29.80,SSE,157,4.0,5.0,94,0.00,,,0.00,TxWx,2013-05-19 07:03:00,
2013-05-19 02:04:00,78.0,76.0,29.80,SSE,157,11.0,14.0,94,0.00,,,0.00,TxWx,2013-05-19 07:04:00,
2013-05-19 02:05:00,78.0,76.0,29.81,SSE,157,9.0,9.0,94,0.00,,,0.00,TxWx,2013-05-19 07:05:00,
2013-05-19 02:08:00,78.0,76.0,29.80,SE,135,11.0,12.0,94,0.00,,,0.00,TxWx,2013-05-19 07:08:00,
2013-05-19 02:09:00,78.0,76.0,29.81,South,180,13.0,13.0,94,0.00,,,0.00,TxWx,2013-05-19 07:09:00,
2013-05-19 02:11:00,78.0,76.0,29.81,South,180,13.0,15.0,94,0.00,,,0.00,TxWx,2013-05-19 07:11:00,
2013-05-19 02:12:00,78.0,76.0,29.81,South,180,16.0,18.0,94,0.00,,,0.00,TxWx,2013-05-19 07:12:00,
2013-05-19 02:13:00,78.0,76.0,29.81,South,180,14.0,16.0,94,0.00,,,0.00,TxWx,2013-05-19 07:13:00,
2013-05-19 02:15:00,78.0,76.0,29.81,SSE,157,14.0,14.0,94,0.00,,,0.00,TxWx,2013-05-19 07:15:00,
2013-05-19 02:16:00,78.0,76.0,29.81,SSE,157,11.0,13.0,94,0.00,,,0.00,TxWx,2013-05-19 07:16:00,
2013-05-19 02:18:00,78.0,76.0,29.81,SSE,157,11.0,11.0,94,0.00,,,0.00,TxWx,2013-05-19 07:18:00,
2013-05-19 02:20:00,78.0,76.0,29.80,West,270,6.0,8.0,94,0.00,,,0.00,TxWx,2013-05-19 07:20:00,
2013-05-19 02:21:00,78.0,76.0,29.80,South,180,5.0,5.0,94,0.00,,,0.00,TxWx,2013-05-19 07:21:00,
2013-05-19 02:22:00,78.0,76.0,29.80,SSW,202,8.0,8.0,94,0.00,,,0.00,TxWx,2013-05-19 07:22:00,
2013-05-19 02:24:00,78.0,76.0,29.80,SE,135,6.0,6.0,94,0.00,,,0.00,TxWx,2013-05-19 07:24:00,
2013-05-19 02:26:00,78.0,76.0,29.80,SE,135,10.0,10.0,94,0.00,,,0.00,TxWx,2013-05-19 07:26:00,
2013-05-19 02:28:00,78.0,76.0,29.80,South,180,9.0,9.0,94,0.00,,,0.00,TxWx,2013-05-19 07:28:00,
2013-05-19 02:30:00,78.0,76.0,29.80,SSW,202,10.0,11.0,95,0.00,,,0.00,TxWx,2013-05-19 07:30:00,
2013-05-19 02:31:00,78.0,76.0,29.81,South,180,10.0,10.0,95,0.00,,,0.00,TxWx,2013-05-19 07:31:00,
2013-05-19 02:32:00,78.0,76.0,29.81,SSE,157,8.0,9.0,95,0.00,,,0.00,TxWx,2013-05-19 07:32:00,
2013-05-19 02:34:00,78.0,76.0,29.80,SSW,202,6.0,7.0,95,0.00,,,0.00,TxWx,2013-05-19 07:34:00,
2013-05-19 02:36:00,78.0,76.0,29.80,South,180,13.0,13.0,95,0.00,,,0.00,TxWx,2013-05-19 07:36:00,
2013-05-19 02:37:00,78.0,76.0,29.80,South,180,9.0,10.0,95,0.00,,,0.00,TxWx,2013-05-19 07:37:00,
2013-05-19 02:38:00,78.0,76.0,29.80,SSE,157,8.0,9.0,95,0.00,,,0.00,TxWx,2013-05-19 07:38:00,
2013-05-19 02:40:00,78.0,76.0,29.80,SSE,157,18.0,18.0,95,0.00,,,0.00,TxWx,2013-05-19 07:40:00,
2013-05-19 02:42:00,78.0,76.0,29.80,SE,135,10.0,11.0,95,0.00,,,0.00,TxWx,2013-05-19 07:42:00,
2013-05-19 02:43:00,78.0,76.0,29.80,SSE,157,11.0,11.0,95,0.00,,,0.00,TxWx,2013-05-19 07:43:00,
2013-05-19 02:45:00,78.0,76.0,29.81,South,180,10.0,11.0,95,0.00,,,0.00,TxWx,2013-05-19 07:45:00,
2013-05-19 02:46:00,78.0,76.0,29.80,SSW,202,17.0,19.0,95,0.00,,,0.00,TxWx,2013-05-19 07:46:00,
2013-05-19 02:48:00,78.0,76.0,29.80,South,180,13.0,13.0,95,0.00,,,0.00,TxWx,2013-05-19 07:48:00,
2013-05-19 02:50:00,78.0,76.0,29.80,South,180,6.0,7.0,95,0.00,,,0.00,TxWx,2013-05-19 07:50:00,
2013-05-19 02:51:00,78.0,76.0,29.80,SSE,157,7.0,7.0,95,0.00,,,0.00,TxWx,2013-05-19 07:51:00,
2013-05-19 02:52:00,78.0,77.0,29.80,SSE,157,9.0,10.0,96,0.00,,,0.00,TxWx,2013-05-19 07:52:00,
2013-05-19 02:53:00,78.0,76.0,29.80,South,180,11.0,12.0,95,0.00,,,0.00,TxWx,2013-05-19 07:53:00,
2013-05-19 02:55:00,78.0,77.0,29.80,SSW,202,11.0,11.0,96,0.00,,,0.00,TxWx,2013-05-19 07:55:00,
2013-05-19 02:56:00,78.0,77.0,29.80,SSW,202,8.0,8.0,96,0.00,,,0.00,TxWx,2013-05-19 07:56:00,
2013-05-19 02:58:00,78.0,77.0,29.80,SSW,202,10.0,10.0,96,0.00,,,0.00,TxWx,2013-05-19 07:58:00,
2013-05-19 02:59:00,78.0,77.0,29.80,SSW,202,8.0,9.0,96,0.00,,,0.00,TxWx,2013-05-19 07:59:00,
2013-05-19 03:00:00,78.0,77.0,29.80,SSW,202,13.0,15.0,96,0.00,,,0.00,TxWx,2013-05-19 08:00:00,
2013-05-19 03:04:00,78.0,77.0,29.81,SSE,157,18.0,18.0,96,0.00,,,0.00,TxWx,2013-05-19 08:04:00,
2013-05-19 03:07:00,78.0,77.0,29.80,South,180,14.0,17.0,96,0.00,,,0.00,TxWx,2013-05-19 08:07:00,
2013-05-19 03:11:00,78.0,77.0,29.80,South,180,14.0,16.0,96,0.00,,,0.00,TxWx,2013-05-19 08:11:00,
2013-05-19 03:12:00,78.0,77.0,29.80,South,180,9.0,9.0,96,0.00,,,0.00,TxWx,2013-05-19 08:12:00,
2013-05-19 03:13:00,78.0,77.0,29.80,South,180,9.0,9.0,96,0.00,,,0.00,TxWx,2013-05-19 08:13:00,
2013-05-19 03:14:00,78.0,77.0,29.80,South,180,16.0,16.0,96,0.00,,,0.00,TxWx,2013-05-19 08:14:00,
2013-05-19 03:17:00,78.0,77.0,29.80,SSW,202,10.0,11.0,96,0.00,,,0.00,TxWx,2013-05-19 08:17:00,
2013-05-19 03:19:00,78.0,77.0,29.80,SW,225,11.0,11.0,96,0.00,,,0.00,TxWx,2013-05-19 08:19:00,
2013-05-19 03:20:00,78.0,77.0,29.80,South,180,11.0,11.0,95,0.00,,,0.00,TxWx,2013-05-19 08:20:00,
2013-05-19 03:24:00,78.0,76.0,29.81,SSE,157,13.0,13.0,95,0.00,,,0.00,TxWx,2013-05-19 08:24:00,
2013-05-19 03:25:00,78.0,76.0,29.80,South,180,10.0,11.0,95,0.00,,,0.00,TxWx,2013-05-19 08:25:00,
2013-05-19 03:26:00,78.0,76.0,29.80,WSW,247,10.0,10.0,95,0.00,,,0.00,TxWx,2013-05-19 08:26:00,
2013-05-19 03:27:00,78.0,76.0,29.80,SSW,202,15.0,18.0,95,0.00,,,0.00,TxWx,2013-05-19 08:27:00,
2013-05-19 03:30:00,78.0,76.0,29.80,SE,135,18.0,18.0,95,0.00,,,0.00,TxWx,2013-05-19 08:30:00,
2013-05-19 03:32:00,78.0,76.0,29.80,SSW,202,19.0,19.0,95,0.00,,,0.00,TxWx,2013-05-19 08:32:00,
2013-05-19 03:35:00,78.0,76.0,29.80,SSW,202,8.0,8.0,95,0.00,,,0.00,TxWx,2013-05-19 08:35:00,
2013-05-19 03:36:00,78.0,76.0,29.80,South,180,13.0,14.0,95,0.00,,,0.00,TxWx,2013-05-19 08:36:00,
2013-05-19 03:37:00,78.0,76.0,29.80,South,180,9.0,10.0,95,0.00,,,0.00,TxWx,2013-05-19 08:37:00,
2013-05-19 03:38:00,78.0,76.0,29.80,SSW,202,10.0,12.0,95,0.00,,,0.00,TxWx,2013-05-19 08:38:00,
2013-05-19 03:39:00,78.0,76.0,29.80,SW,225,10.0,10.0,95,0.00,,,0.00,TxWx,2013-05-19 08:39:00,
2013-05-19 03:41:00,78.0,76.0,29.80,SSW,202,11.0,11.0,95,0.00,,,0.00,TxWx,2013-05-19 08:41:00,
2013-05-19 03:42:00,78.0,76.0,29.80,South,180,12.0,13.0,95,0.00,,,0.00,TxWx,2013-05-19 08:42:00,
2013-05-19 03:45:00,78.0,76.0,29.79,SE,135,19.0,19.0,95,0.00,,,0.00,TxWx,2013-05-19 08:45:00,
2013-05-19 03:47:00,78.0,76.0,29.79,South,180,21.0,21.0,95,0.00,,,0.00,TxWx,2013-05-19 08:47:00,
2013-05-19 03:48:00,78.0,76.0,29.79,South,180,13.0,13.0,95,0.00,,,0.00,TxWx,2013-05-19 08:48:00,
2013-05-19 03:49:00,78.0,76.0,29.79,SSE,157,11.0,14.0,95,0.00,,,0.00,TxWx,2013-05-19 08:49:00,
2013-05-19 03:50:00,78.0,76.0,29.79,South,180,13.0,14.0,95,0.00,,,0.00,TxWx,2013-05-19 08:50:00,
2013-05-19 03:52:00,78.0,76.0,29.79,SSW,202,15.0,18.0,95,0.00,,,0.00,TxWx,2013-05-19 08:52:00,
2013-05-19 03:53:00,78.0,76.0,29.79,SSW,202,14.0,14.0,95,0.00,,,0.00,TxWx,2013-05-19 08:53:00,
2013-05-19 03:54:00,78.0,76.0,29.79,South,180,11.0,13.0,95,0.00,,,0.00,TxWx,2013-05-19 08:54:00,
2013-05-19 03:56:00,78.0,76.0,29.79,South,180,14.0,14.0,95,0.00,,,0.00,TxWx,2013-05-19 08:56:00,
2013-05-19 03:57:00,78.0,76.0,29.79,SSW,202,11.0,14.0,94,0.00,,,0.00,TxWx,2013-05-19 08:57:00,
2013-05-19 03:58:00,78.0,76.0,29.79,SSE,157,15.0,15.0,94,0.00,,,0.00,TxWx,2013-05-19 08:58:00,
2013-05-19 04:01:00,78.0,76.0,29.79,SSE,157,16.0,16.0,94,0.00,,,0.00,TxWx,2013-05-19 09:01:00,
2013-05-19 04:02:00,78.0,76.0,29.79,South,180,10.0,10.0,94,0.00,,,0.00,TxWx,2013-05-19 09:02:00,
2013-05-19 04:03:00,78.0,76.0,29.79,SSE,157,10.0,10.0,94,0.00,,,0.00,TxWx,2013-05-19 09:03:00,
2013-05-19 04:06:00,78.0,76.0,29.79,SSE,157,9.0,10.0,94,0.00,,,0.00,TxWx,2013-05-19 09:06:00,
2013-05-19 04:07:00,78.0,76.0,29.79,SSE,157,15.0,15.0,94,0.00,,,0.00,TxWx,2013-05-19 09:07:00,
2013-05-19 04:09:00,78.0,76.0,29.79,South,180,14.0,14.0,94,0.00,,,0.00,TxWx,2013-05-19 09:09:00,
2013-05-19 04:10:00,78.0,76.0,29.79,South,180,9.0,10.0,94,0.00,,,0.00,TxWx,2013-05-19 09:10:00,
2013-05-19 04:12:00,78.0,76.0,29.79,SSW,202,10.0,10.0,94,0.00,,,0.00,TxWx,2013-05-19 09:12:00,
2013-05-19 04:14:00,78.0,76.0,29.79,SE,135,8.0,10.0,94,0.00,,,0.00,TxWx,2013-05-19 09:14:00,
2013-05-19 04:15:00,78.0,76.0,29.79,South,180,7.0,8.0,94,0.00,,,0.00,TxWx,2013-05-19 09:15:00,
2013-05-19 04:16:00,78.0,76.0,29.79,SSE,157,11.0,13.0,94,0.00,,,0.00,TxWx,2013-05-19 09:16:00,
2013-05-19 04:19:00,78.0,76.0,29.79,SSW,202,19.0,19.0,94,0.00,,,0.00,TxWx,2013-05-19 09:19:00,
2013-05-19 04:20:00,78.0,76.0,29.79,SSW,202,12.0,12.0,94,0.00,,,0.00,TxWx,2013-05-19 09:20:00,
2013-05-19 04:22:00,78.0,76.0,29.79,South,180,12.0,13.0,94,0.00,,,0.00,TxWx,2013-05-19 09:22:00,
2013-05-19 04:25:00,78.0,76.0,29.79,SSW,202,10.0,11.0,94,0.00,,,0.00,TxWx,2013-05-19 09:25:00,
2013-05-19 04:26:00,78.0,76.0,29.79,South,180,10.0,10.0,94,0.00,,,0.00,TxWx,2013-05-19 09:26:00,
2013-05-19 04:28:00,78.0,76.0,29.79,SSE,157,14.0,14.0,94,0.00,,,0.00,TxWx,2013-05-19 09:28:00,
2013-05-19 04:31:00,78.0,76.0,29.79,SSE,157,6.0,7.0,94,0.00,,,0.00,TxWx,2013-05-19 09:31:00,
2013-05-19 04:32:00,78.0,76.0,29.79,SE,135,10.0,12.0,94,0.00,,,0.00,TxWx,2013-05-19 09:32:00,
2013-05-19 04:33:00,78.0,76.0,29.79,SSE,157,15.0,15.0,94,0.00,,,0.00,TxWx,2013-05-19 09:33:00,
2013-05-19 04:34:00,78.0,76.0,29.79,South,180,11.0,14.0,94,0.00,,,0.00,TxWx,2013-05-19 09:34:00,
2013-05-19 04:37:00,78.0,76.0,29.79,SSE,157,17.0,17.0,93,0.00,,,0.00,TxWx,2013-05-19 09:37:00,
2013-05-19 04:38:00,78.0,76.0,29.79,South,180,7.0,7.0,93,0.00,,,0.00,TxWx,2013-05-19 09:38:00,
2013-05-19 04:39:00,78.0,76.0,29.79,SE,135,6.0,8.0,93,0.00,,,0.00,TxWx,2013-05-19 09:39:00,
2013-05-19 04:40:00,78.0,76.0,29.79,South,180,13.0,13.0,93,0.00,,,0.00,TxWx,2013-05-19 09:40:00,
2013-05-19 04:43:00,78.0,76.0,29.79,SSW,202,15.0,16.0,94,0.00,,,0.00,TxWx,2013-05-19 09:43:00,
2013-05-19 04:44:00,78.0,76.0,29.79,South,180,7.0,7.0,94,0.00,,,0.00,TxWx,2013-05-19 09:44:00,
2013-05-19 04:45:00,78.0,76.0,29.79,SSE,157,11.0,14.0,94,0.00,,,0.00,TxWx,2013-05-19 09:45:00,
2013-05-19 04:46:00,78.0,76.0,29.78,SSE,157,14.0,16.0,94,0.00,,,0.00,TxWx,2013-05-19 09:46:00,
2013-05-19 04:47:00,78.0,76.0,29.78,SSE,157,10.0,10.0,94,0.00,,,0.00,TxWx,2013-05-19 09:47:00,
2013-05-19 04:48:00,78.0,76.0,29.78,South,180,14.0,14.0,94,0.00,,,0.00,TxWx,2013-05-19 09:48:00,
2013-05-19 04:51:00,78.0,76.0,29.78,SE,135,8.0,9.0,94,0.00,,,0.00,TxWx,2013-05-19 09:51:00,
2013-05-19 04:52:00,78.0,76.0,29.78,South,180,18.0,19.0,94,0.00,,,0.00,TxWx,2013-05-19 09:52:00,
2013-05-19 04:53:00,78.0,76.0,29.78,SSE,157,11.0,11.0,94,0.00,,,0.00,TxWx,2013-05-19 09:53:00,
2013-05-19 04:54:00,78.0,76.0,29.78,South,180,6.0,6.0,94,0.00,,,0.00,TxWx,2013-05-19 09:54:00,
2013-05-19 04:58:00,78.0,76.0,29.78,SSE,157,7.0,8.0,94,0.00,,,0.00,TxWx,2013-05-19 09:58:00,
2013-05-19 04:59:00,78.0,76.0,29.78,South,180,11.0,12.0,94,0.00,,,0.00,TxWx,2013-05-19 09:59:00,
2013-05-19 05:00:00,78.0,76.0,29.79,South,180,11.0,11.0,95,0.00,,,0.00,TxWx,2013-05-19 10:00:00,
2013-05-19 05:01:00,78.0,76.0,29.78,SSE,157,10.0,12.0,95,0.00,,,0.00,TxWx,2013-05-19 10:01:00,
2013-05-19 05:03:00,78.0,76.0,29.79,SSE,157,10.0,10.0,95,0.00,,,0.00,TxWx,2013-05-19 10:03:00,
2013-05-19 05:05:00,78.0,76.0,29.79,SSE,157,11.0,11.0,95,0.00,,,0.00,TxWx,2013-05-19 10:05:00,
2013-05-19 05:06:00,78.0,76.0,29.78,SSW,202,6.0,7.0,95,0.00,,,0.00,TxWx,2013-05-19 10:06:00,
2013-05-19 05:07:00,78.0,76.0,29.78,South,180,12.0,13.0,95,0.00,,,0.00,TxWx,2013-05-19 10:07:00,
2013-05-19 05:08:00,78.0,76.0,29.79,South,180,16.0,18.0,95,0.00,,,0.00,TxWx,2013-05-19 10:08:00,
2013-05-19 05:11:00,77.0,75.0,29.78,SSW,202,10.0,10.0,95,0.00,,,0.00,TxWx,2013-05-19 10:11:00,
2013-05-19 05:12:00,77.0,75.0,29.78,SSW,202,8.0,10.0,95,0.00,,,0.00,TxWx,2013-05-19 10:12:00,
2013-05-19 05:13:00,77.0,75.0,29.78,SSW,202,14.0,14.0,95,0.00,,,0.00,TxWx,2013-05-19 10:13:00,
2013-05-19 05:14:00,77.0,75.0,29.78,SSE,157,9.0,9.0,95,0.00,,,0.00,TxWx,2013-05-19 10:14:00,
2013-05-19 05:16:00,77.0,76.0,29.79,SSW,202,10.0,11.0,96,0.00,,,0.00,TxWx,2013-05-19 10:16:00,
2013-05-19 05:17:00,77.0,76.0,29.78,SSE,157,6.0,6.0,96,0.00,,,0.00,TxWx,2013-05-19 10:17:00,
2013-05-19 05:19:00,77.0,76.0,29.79,SSW,202,10.0,10.0,96,0.00,,,0.00,TxWx,2013-05-19 10:19:00,
2013-05-19 05:20:00,77.0,76.0,29.79,South,180,6.0,6.0,96,0.00,,,0.00,TxWx,2013-05-19 10:20:00,
2013-05-19 05:21:00,77.0,76.0,29.78,SSW,202,9.0,10.0,96,0.00,,,0.00,TxWx,2013-05-19 10:21:00,
2013-05-19 05:25:00,77.0,76.0,29.79,SSW,202,8.0,10.0,96,0.00,,,0.00,TxWx,2013-05-19 10:25:00,
2013-05-19 05:26:00,77.0,76.0,29.79,South,180,13.0,13.0,96,0.00,,,0.00,TxWx,2013-05-19 10:26:00,
2013-05-19 05:30:00,77.0,76.0,29.79,SW,225,14.0,14.0,96,0.00,,,0.00,TxWx,2013-05-19 10:30:00,
2013-05-19 05:32:00,77.0,76.0,29.79,South,180,10.0,11.0,96,0.00,,,0.00,TxWx,2013-05-19 10:32:00,
2013-05-19 05:33:00,77.0,76.0,29.79,SSE,157,7.0,9.0,97,0.00,,,0.00,TxWx,2013-05-19 10:33:00,
2013-05-19 05:35:00,77.0,76.0,29.79,SSW,202,11.0,11.0,97,0.00,,,0.00,TxWx,2013-05-19 10:35:00,
2013-05-19 05:37:00,77.0,76.0,29.79,SSW,202,8.0,9.0,97,0.00,,,0.00,TxWx,2013-05-19 10:37:00,
2013-05-19 05:39:00,77.0,76.0,29.79,SSW,202,12.0,13.0,97,0.00,,,0.00,TxWx,2013-05-19 10:39:00,
2013-05-19 05:44:00,77.0,76.0,29.79,South,180,13.0,16.0,97,0.00,,,0.00,TxWx,2013-05-19 10:44:00,
2013-05-19 05:45:00,77.0,76.0,29.79,South,180,5.0,5.0,97,0.00,,,0.00,TxWx,2013-05-19 10:45:00,
2013-05-19 05:46:00,77.0,76.0,29.79,South,180,11.0,13.0,97,0.00,,,0.00,TxWx,2013-05-19 10:46:00,
2013-05-19 05:48:00,77.0,76.0,29.79,South,180,8.0,8.0,97,0.00,,,0.00,TxWx,2013-05-19 10:48:00,
2013-05-19 05:50:00,77.0,76.0,29.79,SSW,202,6.0,8.0,97,0.00,,,0.00,TxWx,2013-05-19 10:50:00,
2013-05-19 05:51:00,77.0,76.0,29.79,SSE,157,11.0,11.0,97,0.00,,,0.00,TxWx,2013-05-19 10:51:00,
2013-05-19 05:54:00,77.0,76.0,29.79,South,180,8.0,10.0,97,0.00,,,0.00,TxWx,2013-05-19 10:54:00,
2013-05-19 05:55:00,77.0,76.0,29.79,SSE,157,6.0,6.0,97,0.00,,,0.00,TxWx,2013-05-19 10:55:00,
2013-05-19 05:56:00,77.0,76.0,29.79,South,180,10.0,12.0,97,0.00,,,0.00,TxWx,2013-05-19 10:56:00,
2013-05-19 05:59:00,77.0,76.0,29.79,South,180,14.0,18.0,97,0.00,,,0.00,TxWx,2013-05-19 10:59:00,
2013-05-19 06:00:00,77.0,76.0,29.79,SSW,202,8.0,8.0,97,0.00,,,0.00,TxWx,2013-05-19 11:00:00,
2013-05-19 06:02:00,77.0,76.0,29.79,SSW,202,12.0,13.0,96,0.00,,,0.00,TxWx,2013-05-19 11:02:00,
2013-05-19 06:06:00,77.0,76.0,29.79,South,180,5.0,5.0,96,0.00,,,0.00,TxWx,2013-05-19 11:06:00,
2013-05-19 06:08:00,78.0,77.0,29.79,SW,225,10.0,10.0,96,0.00,,,0.00,TxWx,2013-05-19 11:08:00,
2013-05-19 06:10:00,78.0,77.0,29.79,South,180,11.0,12.0,96,0.00,,,0.00,TxWx,2013-05-19 11:10:00,
2013-05-19 06:12:00,78.0,77.0,29.79,SSE,157,12.0,14.0,96,0.00,,,0.00,TxWx,2013-05-19 11:12:00,
2013-05-19 06:13:00,78.0,77.0,29.79,SSW,202,6.0,6.0,96,0.00,,,0.00,TxWx,2013-05-19 11:13:00,
2013-05-19 06:15:00,78.0,77.0,29.79,South,180,8.0,8.0,96,0.00,,,0.00,TxWx,2013-05-19 11:15:00,
2013-05-19 06:16:00,78.0,77.0,29.79,South,180,12.0,14.0,96,0.00,,,0.00,TxWx,2013-05-19 11:16:00,
2013-05-19 06:18:00,78.0,77.0,29.79,SE,135,10.0,12.0,96,0.00,,,0.00,TxWx,2013-05-19 11:18:00,
2013-05-19 06:19:00,77.0,76.0,29.79,SSE,157,11.0,13.0,96,0.00,,,0.00,TxWx,2013-05-19 11:19:00,
2013-05-19 06:20:00,77.0,76.0,29.79,South,180,11.0,12.0,96,0.00,,,0.00,TxWx,2013-05-19 11:20:00,
2013-05-19 06:22:00,77.0,76.0,29.79,SSW,202,12.0,12.0,96,0.00,,,0.00,TxWx,2013-05-19 11:22:00,
2013-05-19 06:24:00,77.0,76.0,29.79,SSE,157,10.0,10.0,96,0.00,,,0.00,TxWx,2013-05-19 11:24:00,
2013-05-19 06:25:00,77.0,76.0,29.79,South,180,10.0,10.0,96,0.00,,,0.00,TxWx,2013-05-19 11:25:00,
2013-05-19 06:28:00,77.0,76.0,29.79,SSW,202,16.0,19.0,96,0.00,,,0.00,TxWx,2013-05-19 11:28:00,
2013-05-19 06:29:00,77.0,76.0,29.79,SSW,202,10.0,10.0,96,0.00,,,0.00,TxWx,2013-05-19 11:29:00,
2013-05-19 06:31:00,77.0,76.0,29.79,SSE,157,13.0,13.0,96,0.00,,,0.00,TxWx,2013-05-19 11:31:00,
2013-05-19 06:33:00,77.0,76.0,29.79,SE,135,10.0,11.0,96,0.00,,,0.00,TxWx,2013-05-19 11:33:00,
2013-05-19 06:34:00,77.0,76.0,29.79,SSE,157,6.0,6.0,96,0.00,,,0.00,TxWx,2013-05-19 11:34:00,
2013-05-19 06:36:00,77.0,76.0,29.79,SSW,202,10.0,11.0,96,0.00,,,0.00,TxWx,2013-05-19 11:36:00,
2013-05-19 06:37:00,77.0,76.0,29.79,South,180,13.0,13.0,96,0.00,,,0.00,TxWx,2013-05-19 11:37:00,
2013-05-19 06:38:00,77.0,76.0,29.79,South,180,13.0,14.0,96,0.00,,,0.00,TxWx,2013-05-19 11:38:00,
2013-05-19 06:39:00,77.0,76.0,29.80,South,180,10.0,10.0,96,0.00,,,0.00,TxWx,2013-05-19 11:39:00,
2013-05-19 06:40:00,77.0,76.0,29.80,SSE,157,11.0,11.0,96,0.00,,,0.00,TxWx,2013-05-19 11:40:00,
2013-05-19 06:41:00,77.0,76.0,29.80,South,180,10.0,10.0,96,0.00,,,0.00,TxWx,2013-05-19 11:41:00,
2013-05-19 06:44:00,78.0,77.0,29.80,SW,225,10.0,11.0,96,0.00,,,0.00,TxWx,2013-05-19 11:44:00,
2013-05-19 06:46:00,77.0,76.0,29.80,South,180,11.0,12.0,96,0.00,,,0.00,TxWx,2013-05-19 11:46:00,
2013-05-19 06:47:00,78.0,77.0,29.80,SW,225,9.0,10.0,96,0.00,,,0.00,TxWx,2013-05-19 11:47:00,
2013-05-19 06:48:00,78.0,77.0,29.80,South,180,15.0,16.0,96,0.00,,,0.00,TxWx,2013-05-19 11:48:00,
2013-05-19 06:49:00,78.0,77.0,29.80,SSW,202,11.0,11.0,96,0.00,,,0.00,TxWx,2013-05-19 11:49:00,
2013-05-19 06:51:00,78.0,77.0,29.80,SSE,157,15.0,15.0,96,0.00,,,0.00,TxWx,2013-05-19 11:51:00,
2013-05-19 06:52:00,78.0,77.0,29.80,South,180,10.0,10.0,96,0.00,,,0.00,TxWx,2013-05-19 11:52:00,
2013-05-19 06:55:00,78.0,77.0,29.80,South,180,9.0,10.0,96,0.00,,,0.00,TxWx,2013-05-19 11:55:00,
2013-05-19 06:56:00,78.0,77.0,29.80,South,180,14.0,14.0,96,0.00,,,0.00,TxWx,2013-05-19 11:56:00,
2013-05-19 06:57:00,78.0,77.0,29.80,SSW,202,11.0,11.0,96,0.00,,,0.00,TxWx,2013-05-19 11:57:00,
2013-05-19 07:01:00,78.0,76.0,29.80,SSE,157,14.0,14.0,95,0.00,,,0.00,TxWx,2013-05-19 12:01:00,
2013-05-19 07:02:00,78.0,76.0,29.80,SSW,202,15.0,15.0,95,0.00,,,0.00,TxWx,2013-05-19 12:02:00,
2013-05-19 07:04:00,78.0,76.0,29.80,South,180,14.0,16.0,95,0.00,,,0.00,TxWx,2013-05-19 12:04:00,
2013-05-19 07:06:00,78.0,76.0,29.80,South,180,13.0,13.0,95,0.00,,,0.00,TxWx,2013-05-19 12:06:00,
2013-05-19 07:07:00,78.0,76.0,29.80,SSW,202,7.0,9.0,95,0.00,,,0.00,TxWx,2013-05-19 12:07:00,
2013-05-19 07:09:00,78.0,76.0,29.80,SSE,157,6.0,7.0,95,0.00,,,0.00,TxWx,2013-05-19 12:09:00,
2013-05-19 07:10:00,78.0,76.0,29.80,SSE,157,13.0,13.0,95,0.00,,,0.00,TxWx,2013-05-19 12:10:00,
2013-05-19 07:12:00,78.0,76.0,29.80,South,180,8.0,9.0,95,0.00,,,0.00,TxWx,2013-05-19 12:12:00,
2013-05-19 07:15:00,78.0,76.0,29.80,South,180,12.0,13.0,95,0.00,,,0.00,TxWx,2013-05-19 12:15:00,
2013-05-19 07:16:00,78.0,76.0,29.80,SW,225,9.0,9.0,95,0.00,,,0.00,TxWx,2013-05-19 12:16:00,
2013-05-19 07:17:00,78.0,76.0,29.80,South,180,10.0,10.0,95,0.00,,,0.00,TxWx,2013-05-19 12:17:00,
2013-05-19 07:18:00,78.0,76.0,29.80,SE,135,8.0,8.0,95,0.00,,,0.00,TxWx,2013-05-19 12:18:00,
2013-05-19 07:21:00,78.0,76.0,29.80,South,180,6.0,7.0,95,0.00,,,0.00,TxWx,2013-05-19 12:21:00,
2013-05-19 07:22:00,78.0,76.0,29.80,SE,135,10.0,12.0,95,0.00,,,0.00,TxWx,2013-05-19 12:22:00,
2013-05-19 07:23:00,78.0,76.0,29.80,South,180,13.0,13.0,95,0.00,,,0.00,TxWx,2013-05-19 12:23:00,
2013-05-19 07:26:00,78.0,76.0,29.80,South,180,13.0,13.0,95,0.00,,,0.00,TxWx,2013-05-19 12:26:00,
2013-05-19 07:27:00,78.0,76.0,29.80,SE,135,10.0,10.0,95,0.00,,,0.00,TxWx,2013-05-19 12:27:00,
2013-05-19 07:28:00,78.0,76.0,29.80,South,180,18.0,18.0,95,0.00,,,0.00,TxWx,2013-05-19 12:28:00,
2013-05-19 07:31:00,78.0,76.0,29.80,SSW,202,18.0,22.0,95,0.00,,,0.00,TxWx,2013-05-19 12:31:00,
2013-05-19 07:32:00,78.0,76.0,29.80,South,180,14.0,19.0,95,0.00,,,0.00,TxWx,2013-05-19 12:32:00,
2013-05-19 07:35:00,78.0,76.0,29.81,South,180,15.0,16.0,95,0.00,,,0.00,TxWx,2013-05-19 12:35:00,
2013-05-19 07:38:00,78.0,76.0,29.80,SSW,202,11.0,14.0,95,0.00,,,0.00,TxWx,2013-05-19 12:38:00,
2013-05-19 07:40:00,78.0,76.0,29.81,SSE,157,16.0,16.0,95,0.00,,,0.00,TxWx,2013-05-19 12:40:00,
2013-05-19 07:41:00,78.0,76.0,29.80,SSW,202,16.0,16.0,95,0.00,,,0.00,TxWx,2013-05-19 12:41:00,
2013-05-19 07:43:00,78.0,76.0,29.81,South,180,10.0,10.0,95,0.00,,,0.00,TxWx,2013-05-19 12:43:00,
2013-05-19 07:44:00,78.0,76.0,29.81,SW,225,5.0,8.0,95,0.00,,,0.00,TxWx,2013-05-19 12:44:00,
2013-05-19 07:45:00,78.0,76.0,29.81,South,180,16.0,16.0,95,0.00,,,0.00,TxWx,2013-05-19 12:45:00,
2013-05-19 07:46:00,78.0,76.0,29.81,SSE,157,19.0,20.0,94,0.00,,,0.00,TxWx,2013-05-19 12:46:00,
2013-05-19 07:48:00,78.0,76.0,29.81,SSE,157,13.0,15.0,94,0.00,,,0.00,TxWx,2013-05-19 12:48:00,
2013-05-19 07:49:00,78.0,76.0,29.81,SSW,202,15.0,15.0,94,0.00,,,0.00,TxWx,2013-05-19 12:49:00,
2013-05-19 07:52:00,78.0,76.0,29.81,SSW,202,19.0,19.0,94,0.00,,,0.00,TxWx,2013-05-19 12:52:00,
2013-05-19 07:53:00,78.0,76.0,29.81,South,180,13.0,13.0,94,0.00,,,0.00,TxWx,2013-05-19 12:53:00,
2013-05-19 07:54:00,78.0,76.0,29.81,South,180,10.0,11.0,94,0.00,,,0.00,TxWx,2013-05-19 12:54:00,
2013-05-19 07:56:00,78.0,76.0,29.81,South,180,8.0,9.0,93,0.00,,,0.00,TxWx,2013-05-19 12:56:00,
2013-05-19 07:57:00,78.0,76.0,29.81,SSE,157,7.0,8.0,93,0.00,,,0.00,TxWx,2013-05-19 12:57:00,
2013-05-19 08:00:00,78.0,76.0,29.81,SSW,202,12.0,12.0,93,0.00,,,0.00,TxWx,2013-05-19 13:00:00,
2013-05-19 08:01:00,78.0,76.0,29.81,SSW,202,11.0,14.0,93,0.00,,,0.00,TxWx,2013-05-19 13:01:00,
2013-05-19 08:03:00,78.0,76.0,29.81,SSE,157,7.0,8.0,93,0.00,,,0.00,TxWx,2013-05-19 13:03:00,
2013-05-19 08:05:00,78.0,76.0,29.81,SSE,157,13.0,13.0,93,0.00,,,0.00,TxWx,2013-05-19 13:05:00,
2013-05-19 08:06:00,78.0,76.0,29.81,SSE,157,8.0,8.0,93,0.00,,,0.00,TxWx,2013-05-19 13:06:00,
2013-05-19 08:07:00,78.0,76.0,29.81,SSE,157,11.0,11.0,93,0.00,,,0.00,TxWx,2013-05-19 13:07:00,
2013-05-19 08:08:00,78.0,76.0,29.81,SSE,157,9.0,11.0,93,0.00,,,0.00,TxWx,2013-05-19 13:08:00,
2013-05-19 08:10:00,78.0,76.0,29.80,SSW,202,9.0,11.0,94,0.00,,,0.00,TxWx,2013-05-19 13:10:00,
2013-05-19 08:12:00,78.0,76.0,29.81,SSE,157,10.0,10.0,94,0.00,,,0.00,TxWx,2013-05-19 13:12:00,
2013-05-19 08:13:00,78.0,76.0,29.81,SSW,202,10.0,12.0,93,0.00,,,0.00,TxWx,2013-05-19 13:13:00,
2013-05-19 08:14:00,78.0,76.0,29.81,SSW,202,13.0,13.0,93,0.00,,,0.00,TxWx,2013-05-19 13:14:00,
2013-05-19 08:15:00,78.0,76.0,29.81,South,180,10.0,10.0,93,0.00,,,0.00,TxWx,2013-05-19 13:15:00,
2013-05-19 08:17:00,78.0,76.0,29.81,South,180,5.0,6.0,94,0.00,,,0.00,TxWx,2013-05-19 13:17:00,
2013-05-19 08:20:00,78.0,76.0,29.81,South,180,11.0,13.0,93,0.00,,,0.00,TxWx,2013-05-19 13:20:00,
2013-05-19 08:21:00,78.0,76.0,29.81,SSE,157,10.0,11.0,93,0.00,,,0.00,TxWx,2013-05-19 13:21:00,
2013-05-19 08:22:00,79.0,77.0,29.81,SSW,202,12.0,12.0,93,0.00,,,0.00,TxWx,2013-05-19 13:22:00,
2013-05-19 08:23:00,79.0,77.0,29.81,SSE,157,6.0,7.0,93,0.00,,,0.00,TxWx,2013-05-19 13:23:00,
2013-05-19 08:26:00,79.0,77.0,29.81,South,180,13.0,13.0,93,0.00,,,0.00,TxWx,2013-05-19 13:26:00,
2013-05-19 08:27:00,79.0,76.0,29.82,SSE,157,16.0,18.0,92,0.00,,,0.00,TxWx,2013-05-19 13:27:00,
2013-05-19 08:28:00,79.0,76.0,29.81,SSE,157,5.0,5.0,92,0.00,,,0.00,TxWx,2013-05-19 13:28:00,
2013-05-19 08:29:00,79.0,76.0,29.82,SSE,157,14.0,14.0,92,0.00,,,0.00,TxWx,2013-05-19 13:29:00,
2013-05-19 08:33:00,79.0,76.0,29.82,South,180,10.0,11.0,92,0.00,,,0.00,TxWx,2013-05-19 13:33:00,
2013-05-19 08:34:00,79.0,76.0,29.82,South,180,11.0,13.0,92,0.00,,,0.00,TxWx,2013-05-19 13:34:00,
2013-05-19 08:35:00,79.0,76.0,29.82,SW,225,8.0,9.0,92,0.00,,,0.00,TxWx,2013-05-19 13:35:00,
2013-05-19 08:36:00,79.0,76.0,29.82,SSE,157,11.0,11.0,92,0.00,,,0.00,TxWx,2013-05-19 13:36:00,
2013-05-19 08:39:00,78.0,75.0,29.82,South,180,21.0,21.0,92,0.00,,,0.00,TxWx,2013-05-19 13:39:00,
2013-05-19 08:40:00,78.0,75.0,29.81,SSW,202,12.0,13.0,92,0.00,,,0.00,TxWx,2013-05-19 13:40:00,
2013-05-19 08:42:00,79.0,76.0,29.81,SSW,202,10.0,12.0,92,0.00,,,0.00,TxWx,2013-05-19 13:42:00,
2013-05-19 08:43:00,79.0,76.0,29.81,SSE,157,10.0,10.0,92,0.00,,,0.00,TxWx,2013-05-19 13:43:00,
2013-05-19 08:44:00,79.0,76.0,29.81,South,180,8.0,8.0,92,0.00,,,0.00,TxWx,2013-05-19 13:44:00,
2013-05-19 08:45:00,79.0,76.0,29.81,SSW,202,11.0,14.0,92,0.00,,,0.00,TxWx,2013-05-19 13:45:00,
2013-05-19 08:47:00,79.0,76.0,29.81,SSW,202,10.0,10.0,92,0.00,,,0.00,TxWx,2013-05-19 13:47:00,
2013-05-19 08:49:00,79.0,76.0,29.81,SSW,202,6.0,6.0,92,0.00,,,0.00,TxWx,2013-05-19 13:49:00,
2013-05-19 08:50:00,79.0,76.0,29.81,SE,135,6.0,7.0,92,0.00,,,0.00,TxWx,2013-05-19 13:50:00,
2013-05-19 08:51:00,79.0,76.0,29.82,SSW,202,16.0,18.0,92,0.00,,,0.00,TxWx,2013-05-19 13:51:00,
2013-05-19 08:52:00,79.0,76.0,29.81,South,180,10.0,11.0,92,0.00,,,0.00,TxWx,2013-05-19 13:52:00,
2013-05-19 08:55:00,79.0,76.0,29.81,SE,135,10.0,13.0,92,0.00,,,0.00,TxWx,2013-05-19 13:55:00,
2013-05-19 08:56:00,79.0,76.0,29.81,South,180,13.0,16.0,92,0.00,,,0.00,TxWx,2013-05-19 13:56:00,
2013-05-19 08:57:00,78.0,75.0,29.81,South,180,17.0,17.0,92,0.00,,,0.00,TxWx,2013-05-19 13:57:00,
2013-05-19 08:58:00,79.0,77.0,29.81,South,180,10.0,11.0,93,0.00,,,0.00,TxWx,2013-05-19 13:58:00,
2013-05-19 08:59:00,79.0,77.0,29.81,SSE,157,11.0,11.0,93,0.00,,,0.00,TxWx,2013-05-19 13:59:00,
2013-05-19 09:01:00,79.0,77.0,29.81,SE,135,11.0,14.0,93,0.00,,,0.00,TxWx,2013-05-19 14:01:00,
2013-05-19 09:02:00,79.0,77.0,29.81,SSW,202,15.0,15.0,93,0.00,,,0.00,TxWx,2013-05-19 14:02:00,
2013-05-19 09:04:00,79.0,77.0,29.81,SSW,202,13.0,16.0,93,0.00,,,0.00,TxWx,2013-05-19 14:04:00,
2013-05-19 09:05:00,79.0,77.0,29.81,SE,135,14.0,14.0,93,0.00,,,0.00,TxWx,2013-05-19 14:05:00,
2013-05-19 09:07:00,79.0,76.0,29.81,SE,135,14.0,16.0,92,0.00,,,0.00,TxWx,2013-05-19 14:07:00,
2013-05-19 09:10:00,79.0,76.0,29.81,SSW,202,10.0,11.0,92,0.00,,,0.00,TxWx,2013-05-19 14:10:00,
2013-05-19 09:11:00,79.0,76.0,29.81,SSW,202,11.0,14.0,92,0.00,,,0.00,TxWx,2013-05-19 14:11:00,
2013-05-19 09:12:00,79.0,76.0,29.81,SE,135,10.0,11.0,92,0.00,,,0.00,TxWx,2013-05-19 14:12:00,
2013-05-19 09:13:00,79.0,76.0,29.81,SSE,157,13.0,13.0,92,0.00,,,0.00,TxWx,2013-05-19 14:13:00,
2013-05-19 09:15:00,79.0,76.0,29.81,SSE,157,20.0,20.0,92,0.00,,,0.00,TxWx,2013-05-19 14:15:00,
2013-05-19 09:16:00,79.0,76.0,29.81,SSW,202,26.0,26.0,92,0.00,,,0.00,TxWx,2013-05-19 14:16:00,
2013-05-19 09:17:00,79.0,76.0,29.81,SE,135,8.0,10.0,92,0.00,,,0.00,TxWx,2013-05-19 14:17:00,
2013-05-19 09:18:00,79.0,76.0,29.81,South,180,16.0,18.0,92,0.00,,,0.00,TxWx,2013-05-19 14:18:00,
2013-05-19 09:20:00,79.0,76.0,29.81,SSW,202,20.0,21.0,92,0.00,,,0.00,TxWx,2013-05-19 14:20:00,
2013-05-19 09:22:00,79.0,76.0,29.81,SSE,157,15.0,15.0,92,0.00,,,0.00,TxWx,2013-05-19 14:22:00,
2013-05-19 09:23:00,79.0,76.0,29.81,SE,135,16.0,16.0,92,0.00,,,0.00,TxWx,2013-05-19 14:23:00,
2013-05-19 09:24:00,79.0,76.0,29.81,SSE,157,14.0,14.0,92,0.00,,,0.00,TxWx,2013-05-19 14:24:00,
2013-05-19 09:25:00,79.0,76.0,29.81,SSE,157,6.0,6.0,92,0.00,,,0.00,TxWx,2013-05-19 14:25:00,
2013-05-19 09:28:00,79.0,76.0,29.81,SSW,202,11.0,13.0,92,0.00,,,0.00,TxWx,2013-05-19 14:28:00,
2013-05-19 09:29:00,79.0,76.0,29.82,SW,225,14.0,14.0,92,0.00,,,0.00,TxWx,2013-05-19 14:29:00,
2013-05-19 09:30:00,79.0,76.0,29.82,South,180,11.0,11.0,92,0.00,,,0.00,TxWx,2013-05-19 14:30:00,
2013-05-19 09:32:00,79.0,76.0,29.82,SE,135,21.0,22.0,92,0.00,,,0.00,TxWx,2013-05-19 14:32:00,
2013-05-19 09:33:00,79.0,76.0,29.82,SSE,157,14.0,16.0,91,0.00,,,0.00,TxWx,2013-05-19 14:33:00,
2013-05-19 09:34:00,79.0,76.0,29.82,South,180,18.0,18.0,92,0.00,,,0.00,TxWx,2013-05-19 14:34:00,
2013-05-19 09:36:00,79.0,76.0,29.82,SSW,202,13.0,16.0,92,0.00,,,0.00,TxWx,2013-05-19 14:36:00,
2013-05-19 09:38:00,79.0,76.0,29.82,SSW,202,13.0,13.0,91,0.00,,,0.00,TxWx,2013-05-19 14:38:00,
2013-05-19 09:39:00,79.0,76.0,29.82,SSE,157,10.0,12.0,91,0.00,,,0.00,TxWx,2013-05-19 14:39:00,
2013-05-19 09:40:00,79.0,76.0,29.82,SE,135,13.0,13.0,91,0.00,,,0.00,TxWx,2013-05-19 14:40:00,
2013-05-19 09:41:00,79.0,76.0,29.82,SSE,157,11.0,12.0,91,0.00,,,0.00,TxWx,2013-05-19 14:41:00,
2013-05-19 09:44:00,79.0,76.0,29.82,SSE,157,21.0,21.0,91,0.00,,,0.00,TxWx,2013-05-19 14:44:00,
2013-05-19 09:45:00,79.0,76.0,29.81,SSW,202,11.0,11.0,91,0.00,,,0.00,TxWx,2013-05-19 14:45:00,
2013-05-19 09:46:00,79.0,76.0,29.81,South,180,8.0,9.0,91,0.00,,,0.00,TxWx,2013-05-19 14:46:00,
2013-05-19 09:47:00,79.0,76.0,29.81,SSW,202,8.0,8.0,91,0.00,,,0.00,TxWx,2013-05-19 14:47:00,
2013-05-19 09:51:00,79.0,76.0,29.81,SSE,157,18.0,18.0,90,0.00,,,0.00,TxWx,2013-05-19 14:51:00,
2013-05-19 09:52:00,79.0,76.0,29.81,SSW,202,15.0,18.0,90,0.00,,,0.00,TxWx,2013-05-19 14:52:00,
2013-05-19 09:55:00,79.0,76.0,29.81,SSW,202,13.0,18.0,90,0.00,,,0.00,TxWx,2013-05-19 14:55:00,
2013-05-19 09:56:00,79.0,76.0,29.81,WSW,247,9.0,11.0,91,0.00,,,0.00,TxWx,2013-05-19 14:56:00,
2013-05-19 09:57:00,79.0,76.0,29.81,SW,225,10.0,12.0,90,0.00,,,0.00,TxWx,2013-05-19 14:57:00,
2013-05-19 09:59:00,79.0,76.0,29.81,SE,135,6.0,6.0,91,0.00,,,0.00,TxWx,2013-05-19 14:59:00,
2013-05-19 10:00:00,79.0,76.0,29.81,SSE,157,11.0,12.0,90,0.00,,,0.00,TxWx,2013-05-19 15:00:00,
2013-05-19 10:02:00,79.0,76.0,29.81,SE,135,19.0,19.0,90,0.00,,,0.00,TxWx,2013-05-19 15:02:00,
2013-05-19 10:03:00,79.0,76.0,29.81,SSW,202,10.0,10.0,90,0.00,,,0.00,TxWx,2013-05-19 15:03:00,
2013-05-19 10:04:00,79.0,76.0,29.81,SE,135,7.0,7.0,91,0.00,,,0.00,TxWx,2013-05-19 15:04:00,
2013-05-19 10:05:00,79.0,76.0,29.81,SE,135,13.0,13.0,90,0.00,,,0.00,TxWx,2013-05-19 15:05:00,
2013-05-19 10:08:00,80.0,77.0,29.82,SSW,202,7.0,8.0,90,0.00,,,0.00,TxWx,2013-05-19 15:08:00,
2013-05-19 10:09:00,80.0,77.0,29.82,SSW,202,16.0,16.0,90,0.00,,,0.00,TxWx,2013-05-19 15:09:00,
2013-05-19 10:10:00,79.0,76.0,29.82,South,180,13.0,14.0,90,0.00,,,0.00,TxWx,2013-05-19 15:10:00,
2013-05-19 10:11:00,79.0,75.0,29.82,SSE,157,11.0,13.0,89,0.00,,,0.00,TxWx,2013-05-19 15:11:00,
2013-05-19 10:16:00,79.0,76.0,29.81,SSW,202,8.0,12.0,90,0.00,,,0.00,TxWx,2013-05-19 15:16:00,
2013-05-19 10:17:00,79.0,76.0,29.82,SSW,202,6.0,6.0,90,0.00,,,0.00,TxWx,2013-05-19 15:17:00,
2013-05-19 10:19:00,80.0,77.0,29.82,South,180,18.0,19.0,90,0.00,,,0.00,TxWx,2013-05-19 15:19:00,
2013-05-19 10:22:00,79.0,75.0,29.82,South,180,17.0,20.0,89,0.00,,,0.00,TxWx,2013-05-19 15:22:00,
2013-05-19 10:23:00,80.0,77.0,29.82,SSW,202,8.0,8.0,90,0.00,,,0.00,TxWx,2013-05-19 15:23:00,
2013-05-19 10:24:00,80.0,77.0,29.81,South,180,8.0,10.0,90,0.00,,,0.00,TxWx,2013-05-19 15:24:00,
2013-05-19 10:27:00,80.0,76.0,29.81,SSE,157,11.0,14.0,89,0.00,,,0.00,TxWx,2013-05-19 15:27:00,
2013-05-19 10:30:00,80.0,76.0,29.81,SSE,157,11.0,11.0,89,0.00,,,0.00,TxWx,2013-05-19 15:30:00,
2013-05-19 10:31:00,80.0,76.0,29.81,SE,135,10.0,10.0,89,0.00,,,0.00,TxWx,2013-05-19 15:31:00,
2013-05-19 10:33:00,80.0,76.0,29.81,SSE,157,26.0,26.0,88,0.00,,,0.00,TxWx,2013-05-19 15:33:00,
2013-05-19 10:34:00,80.0,76.0,29.82,SE,135,13.0,13.0,88,0.00,,,0.00,TxWx,2013-05-19 15:34:00,
2013-05-19 10:35:00,80.0,76.0,29.81,SE,135,10.0,10.0,88,0.00,,,0.00,TxWx,2013-05-19 15:35:00,
2013-05-19 10:36:00,80.0,76.0,29.81,SE,135,11.0,13.0,88,0.00,,,0.00,TxWx,2013-05-19 15:36:00,
2013-05-19 10:39:00,80.0,76.0,29.81,SE,135,8.0,11.0,88,0.00,,,0.00,TxWx,2013-05-19 15:39:00,
2013-05-19 10:40:00,80.0,76.0,29.82,SSW,202,18.0,19.0,88,0.00,,,0.00,TxWx,2013-05-19 15:40:00,
2013-05-19 10:42:00,80.0,76.0,29.82,SW,225,10.0,11.0,88,0.00,,,0.00,TxWx,2013-05-19 15:42:00,
2013-05-19 10:45:00,80.0,76.0,29.82,SSW,202,18.0,18.0,87,0.00,,,0.00,TxWx,2013-05-19 15:45:00,
2013-05-19 10:46:00,80.0,76.0,29.82,SSE,157,19.0,19.0,87,0.00,,,0.00,TxWx,2013-05-19 15:46:00,
2013-05-19 10:47:00,80.0,76.0,29.82,South,180,12.0,13.0,87,0.00,,,0.00,TxWx,2013-05-19 15:47:00,
2013-05-19 10:48:00,80.0,76.0,29.82,SSE,157,19.0,19.0,87,0.00,,,0.00,TxWx,2013-05-19 15:48:00,
2013-05-19 10:51:00,80.0,76.0,29.82,SSE,157,14.0,17.0,88,0.00,,,0.00,TxWx,2013-05-19 15:51:00,
2013-05-19 10:52:00,80.0,76.0,29.82,SSE,157,18.0,19.0,87,0.00,,,0.00,TxWx,2013-05-19 15:52:00,
2013-05-19 10:53:00,80.0,76.0,29.82,SSE,157,13.0,16.0,87,0.00,,,0.00,TxWx,2013-05-19 15:53:00,
2013-05-19 10:54:00,80.0,76.0,29.82,SE,135,15.0,15.0,87,0.00,,,0.00,TxWx,2013-05-19 15:54:00,
2013-05-19 10:57:00,80.0,76.0,29.82,South,180,22.0,22.0,87,0.00,,,0.00,TxWx,2013-05-19 15:57:00,
2013-05-19 10:58:00,80.0,76.0,29.82,South,180,11.0,11.0,87,0.00,,,0.00,TxWx,2013-05-19 15:58:00,
2013-05-19 10:59:00,80.0,76.0,29.82,South,180,18.0,19.0,87,0.00,,,0.00,TxWx,2013-05-19 15:59:00,
2013-05-19 11:03:00,80.0,75.0,29.82,South,180,16.0,16.0,86,0.00,,,0.00,TxWx,2013-05-19 16:03:00,
2013-05-19 11:05:00,80.0,76.0,29.82,SW,225,15.0,23.0,87,0.00,,,0.00,TxWx,2013-05-19 16:05:00,
2013-05-19 11:08:00,80.0,75.0,29.82,SSE,157,12.0,13.0,86,0.00,,,0.00,TxWx,2013-05-19 16:08:00,
2013-05-19 11:10:00,80.0,75.0,29.82,SSW,202,12.0,16.0,86,0.00,,,0.00,TxWx,2013-05-19 16:10:00,
2013-05-19 11:12:00,81.0,76.0,29.82,SSE,157,12.0,13.0,86,0.00,,,0.00,TxWx,2013-05-19 16:12:00,
2013-05-19 11:15:00,80.0,75.0,29.82,SSE,157,15.0,15.0,85,0.00,,,0.00,TxWx,2013-05-19 16:15:00,
2013-05-19 11:16:00,80.0,75.0,29.82,SE,135,13.0,13.0,85,0.00,,,0.00,TxWx,2013-05-19 16:16:00,
2013-05-19 11:17:00,80.0,75.0,29.82,SSE,157,12.0,12.0,85,0.00,,,0.00,TxWx,2013-05-19 16:17:00,
2013-05-19 11:19:00,81.0,76.0,29.82,SSW,202,11.0,13.0,86,0.00,,,0.00,TxWx,2013-05-19 16:19:00,
2013-05-19 11:22:00,81.0,76.0,29.83,SSE,157,8.0,10.0,85,0.00,,,0.00,TxWx,2013-05-19 16:22:00,
2013-05-19 11:23:00,80.0,75.0,29.82,SSE,157,16.0,17.0,85,0.00,,,0.00,TxWx,2013-05-19 16:23:00,
2013-05-19 11:24:00,81.0,76.0,29.82,SSW,202,8.0,11.0,85,0.00,,,0.00,TxWx,2013-05-19 16:24:00,
2013-05-19 11:26:00,81.0,76.0,29.82,SSW,202,6.0,8.0,85,0.00,,,0.00,TxWx,2013-05-19 16:26:00,
2013-05-19 11:28:00,81.0,76.0,29.82,SE,135,9.0,11.0,85,0.00,,,0.00,TxWx,2013-05-19 16:28:00,
2013-05-19 11:32:00,81.0,76.0,29.82,SSW,202,15.0,21.0,84,0.00,,,0.00,TxWx,2013-05-19 16:32:00,
2013-05-19 11:33:00,81.0,76.0,29.82,SW,225,8.0,9.0,84,0.00,,,0.00,TxWx,2013-05-19 16:33:00,
2013-05-19 11:35:00,81.0,76.0,29.82,SSE,157,16.0,19.0,84,0.00,,,0.00,TxWx,2013-05-19 16:35:00,
2013-05-19 11:38:00,81.0,76.0,29.82,SSW,202,18.0,19.0,84,0.00,,,0.00,TxWx,2013-05-19 16:38:00,
2013-05-19 11:40:00,82.0,76.0,29.82,South,180,10.0,10.0,84,0.00,,,0.00,TxWx,2013-05-19 16:40:00,
2013-05-19 11:43:00,81.0,75.0,29.82,South,180,14.0,18.0,83,0.00,,,0.00,TxWx,2013-05-19 16:43:00,
2013-05-19 11:44:00,81.0,75.0,29.82,SSE,157,19.0,19.0,82,0.00,,,0.00,TxWx,2013-05-19 16:44:00,
2013-05-19 11:45:00,81.0,75.0,29.82,SW,225,13.0,13.0,83,0.00,,,0.00,TxWx,2013-05-19 16:45:00,
2013-05-19 11:46:00,81.0,75.0,29.82,SSE,157,10.0,11.0,83,0.00,,,0.00,TxWx,2013-05-19 16:46:00,
2013-05-19 11:49:00,81.0,75.0,29.82,South,180,10.0,11.0,83,0.00,,,0.00,TxWx,2013-05-19 16:49:00,
2013-05-19 11:50:00,81.0,75.0,29.82,SSE,157,19.0,19.0,82,0.00,,,0.00,TxWx,2013-05-19 16:50:00,
2013-05-19 11:51:00,82.0,76.0,29.82,SSW,202,14.0,14.0,83,0.00,,,0.00,TxWx,2013-05-19 16:51:00,
2013-05-19 11:52:00,81.0,75.0,29.82,South,180,19.0,20.0,82,0.00,,,0.00,TxWx,2013-05-19 16:52:00,
2013-05-19 11:54:00,81.0,75.0,29.82,South,180,15.0,15.0,82,0.00,,,0.00,TxWx,2013-05-19 16:54:00,
2013-05-19 11:55:00,81.0,75.0,29.82,South,180,20.0,20.0,81,0.00,,,0.00,TxWx,2013-05-19 16:55:00,
2013-05-19 11:57:00,81.0,75.0,29.82,South,180,14.0,16.0,82,0.00,,,0.00,TxWx,2013-05-19 16:57:00,
2013-05-19 12:01:00,82.0,76.0,29.82,SSE,157,13.0,16.0,82,0.00,,,0.00,TxWx,2013-05-19 17:01:00,
2013-05-19 12:02:00,81.0,75.0,29.82,SSE,157,19.0,19.0,82,0.00,,,0.00,TxWx,2013-05-19 17:02:00,
2013-05-19 12:04:00,82.0,75.0,29.82,SSE,157,23.0,23.0,81,0.00,,,0.00,TxWx,2013-05-19 17:04:00,
2013-05-19 12:05:00,81.0,75.0,29.82,SSW,202,14.0,14.0,81,0.00,,,0.00,TxWx,2013-05-19 17:05:00,
2013-05-19 12:06:00,81.0,75.0,29.82,SSW,202,24.0,24.0,81,0.00,,,0.00,TxWx,2013-05-19 17:06:00,
2013-05-19 12:07:00,81.0,75.0,29.82,South,180,14.0,14.0,82,0.00,,,0.00,TxWx,2013-05-19 17:07:00,
2013-05-19 12:08:00,81.0,75.0,29.82,South,180,22.0,22.0,81,0.00,,,0.00,TxWx,2013-05-19 17:08:00,
2013-05-19 12:09:00,81.0,75.0,29.82,South,180,22.0,22.0,81,0.00,,,0.00,TxWx,2013-05-19 17:09:00,
2013-05-19 12:11:00,81.0,75.0,29.82,SSW,202,13.0,13.0,82,0.00,,,0.00,TxWx,2013-05-19 17:11:00,
2013-05-19 12:12:00,82.0,76.0,29.82,South,180,12.0,12.0,82,0.00,,,0.00,TxWx,2013-05-19 17:12:00,
2013-05-19 12:14:00,82.0,76.0,29.82,SE,135,19.0,24.0,81,0.00,,,0.00,TxWx,2013-05-19 17:14:00,
2013-05-19 12:16:00,82.0,76.0,29.82,SSW,202,14.0,16.0,81,0.00,,,0.00,TxWx,2013-05-19 17:16:00,
2013-05-19 12:17:00,82.0,75.0,29.82,South,180,18.0,19.0,81,0.00,,,0.00,TxWx,2013-05-19 17:17:00,
2013-05-19 12:18:00,81.0,74.0,29.82,SSE,157,25.0,25.0,80,0.00,,,0.00,TxWx,2013-05-19 17:18:00,
2013-05-19 12:20:00,82.0,76.0,29.81,SE,135,17.0,17.0,81,0.00,,,0.00,TxWx,2013-05-19 17:20:00,
2013-05-19 12:21:00,82.0,76.0,29.82,South,180,14.0,16.0,81,0.00,,,0.00,TxWx,2013-05-19 17:21:00,
2013-05-19 12:22:00,82.0,75.0,29.81,SSW,202,23.0,24.0,81,0.00,,,0.00,TxWx,2013-05-19 17:22:00,
2013-05-19 12:24:00,82.0,75.0,29.81,South,180,8.0,10.0,80,0.00,,,0.00,TxWx,2013-05-19 17:24:00,
2013-05-19 12:26:00,82.0,75.0,29.81,South,180,9.0,11.0,80,0.00,,,0.00,TxWx,2013-05-19 17:26:00,
2013-05-19 12:27:00,82.0,75.0,29.81,SSW,202,13.0,15.0,80,0.00,,,0.00,TxWx,2013-05-19 17:27:00,
2013-05-19 12:28:00,82.0,75.0,29.81,SSE,157,11.0,11.0,81,0.00,,,0.00,TxWx,2013-05-19 17:28:00,
2013-05-19 12:30:00,82.0,75.0,29.81,SSE,157,10.0,11.0,80,0.00,,,0.00,TxWx,2013-05-19 17:30:00,
2013-05-19 12:31:00,82.0,75.0,29.81,SE,135,14.0,14.0,80,0.00,,,0.00,TxWx,2013-05-19 17:31:00,
2013-05-19 12:32:00,82.0,75.0,29.81,SSW,202,10.0,11.0,81,0.00,,,0.00,TxWx,2013-05-19 17:32:00,
2013-05-19 12:33:00,82.0,75.0,29.81,SSW,202,11.0,13.0,80,0.00,,,0.00,TxWx,2013-05-19 17:33:00,
2013-05-19 12:35:00,82.0,75.0,29.81,SSE,157,12.0,14.0,79,0.00,,,0.00,TxWx,2013-05-19 17:35:00,
2013-05-19 12:37:00,82.0,75.0,29.81,South,180,26.0,26.0,79,0.00,,,0.00,TxWx,2013-05-19 17:37:00,
2013-05-19 12:38:00,82.0,75.0,29.81,SSW,202,18.0,23.0,79,0.00,,,0.00,TxWx,2013-05-19 17:38:00,
2013-05-19 12:39:00,82.0,75.0,29.81,SSE,157,17.0,17.0,80,0.00,,,0.00,TxWx,2013-05-19 17:39:00,
2013-05-19 12:41:00,82.0,75.0,29.81,South,180,22.0,22.0,80,0.00,,,0.00,TxWx,2013-05-19 17:41:00,
2013-05-19 12:43:00,82.0,75.0,29.80,South,180,23.0,23.0,79,0.00,,,0.00,TxWx,2013-05-19 17:43:00,
2013-05-19 12:44:00,82.0,75.0,29.80,South,180,16.0,18.0,79,0.00,,,0.00,TxWx,2013-05-19 17:44:00,
2013-05-19 12:45:00,82.0,75.0,29.80,SW,225,18.0,18.0,79,0.00,,,0.00,TxWx,2013-05-19 17:45:00,
2013-05-19 12:46:00,82.0,75.0,29.80,SSW,202,22.0,23.0,79,0.00,,,0.00,TxWx,2013-05-19 17:46:00,
2013-05-19 12:49:00,82.0,75.0,29.80,South,180,19.0,19.0,79,0.00,,,0.00,TxWx,2013-05-19 17:49:00,
2013-05-19 12:50:00,82.0,75.0,29.80,SSW,202,16.0,16.0,79,0.00,,,0.00,TxWx,2013-05-19 17:50:00,
2013-05-19 12:51:00,82.0,75.0,29.80,SSW,202,16.0,19.0,79,0.00,,,0.00,TxWx,2013-05-19 17:51:00,
2013-05-19 12:55:00,82.0,74.0,29.80,SSE,157,14.0,16.0,78,0.00,,,0.00,TxWx,2013-05-19 17:55:00,
2013-05-19 12:57:00,82.0,75.0,29.80,SSE,157,18.0,18.0,79,0.00,,,0.00,TxWx,2013-05-19 17:57:00,
2013-05-19 13:00:00,82.0,75.0,29.80,SSW,202,20.0,21.0,79,0.00,,,0.00,TxWx,2013-05-19 18:00:00,
2013-05-19 13:02:00,82.0,75.0,29.80,SE,135,17.0,21.0,79,0.00,,,0.00,TxWx,2013-05-19 18:02:00,
2013-05-19 13:04:00,82.0,75.0,29.80,South,180,12.0,12.0,79,0.00,,,0.00,TxWx,2013-05-19 18:04:00,
2013-05-19 13:05:00,83.0,76.0,29.80,SE,135,12.0,12.0,79,0.00,,,0.00,TxWx,2013-05-19 18:05:00,
2013-05-19 13:06:00,83.0,76.0,29.80,SSE,157,14.0,14.0,79,0.00,,,0.00,TxWx,2013-05-19 18:06:00,
2013-05-19 13:07:00,82.0,74.0,29.80,South,180,18.0,18.0,78,0.00,,,0.00,TxWx,2013-05-19 18:07:00,
2013-05-19 13:09:00,83.0,76.0,29.80,SSW,202,18.0,18.0,79,0.00,,,0.00,TxWx,2013-05-19 18:09:00,
2013-05-19 13:10:00,82.0,74.0,29.80,SSE,157,18.0,18.0,78,0.00,,,0.00,TxWx,2013-05-19 18:10:00,
2013-05-19 13:11:00,82.0,75.0,29.80,SE,135,19.0,19.0,79,0.00,,,0.00,TxWx,2013-05-19 18:11:00,
2013-05-19 13:12:00,82.0,75.0,29.80,SSE,157,10.0,17.0,79,0.00,,,0.00,TxWx,2013-05-19 18:12:00,
2013-05-19 13:13:00,82.0,75.0,29.80,East,90,11.0,12.0,79,0.00,,,0.00,TxWx,2013-05-19 18:13:00,
2013-05-19 13:15:00,82.0,75.0,29.80,South,180,8.0,8.0,80,0.00,,,0.00,TxWx,2013-05-19 18:15:00,
2013-05-19 13:16:00,82.0,75.0,29.80,South,180,9.0,9.0,80,0.00,,,0.00,TxWx,2013-05-19 18:16:00,
2013-05-19 13:17:00,83.0,76.0,29.80,SSW,202,13.0,13.0,80,0.00,,,0.00,TxWx,2013-05-19 18:17:00,
2013-05-19 13:18:00,83.0,76.0,29.80,SSE,157,11.0,11.0,79,0.00,,,0.00,TxWx,2013-05-19 18:18:00,
2013-05-19 13:19:00,83.0,75.0,29.80,SSE,157,14.0,20.0,78,0.00,,,0.00,TxWx,2013-05-19 18:19:00,
2013-05-19 13:22:00,82.0,74.0,29.80,South,180,15.0,17.0,78,0.00,,,0.00,TxWx,2013-05-19 18:22:00,
2013-05-19 13:23:00,83.0,75.0,29.80,WSW,247,10.0,13.0,78,0.00,,,0.00,TxWx,2013-05-19 18:23:00,
2013-05-19 13:25:00,83.0,75.0,29.79,SE,135,16.0,18.0,78,0.00,,,0.00,TxWx,2013-05-19 18:25:00,
2013-05-19 13:26:00,82.0,74.0,29.79,South,180,16.0,17.0,78,0.00,,,0.00,TxWx,2013-05-19 18:26:00,
2013-05-19 13:27:00,83.0,75.0,29.79,SSE,157,13.0,16.0,78,0.00,,,0.00,TxWx,2013-05-19 18:27:00,
2013-05-19 13:28:00,83.0,75.0,29.79,SW,225,12.0,12.0,78,0.00,,,0.00,TxWx,2013-05-19 18:28:00,
2013-05-19 13:29:00,83.0,75.0,29.79,SSE,157,24.0,26.0,77,0.00,,,0.00,TxWx,2013-05-19 18:29:00,
2013-05-19 13:30:00,83.0,75.0,29.79,SE,135,14.0,14.0,77,0.00,,,0.00,TxWx,2013-05-19 18:30:00,
2013-05-19 13:31:00,83.0,75.0,29.79,SE,135,14.0,14.0,77,0.00,,,0.00,TxWx,2013-05-19 18:31:00,
2013-05-19 13:33:00,83.0,75.0,29.79,SSE,157,16.0,21.0,76,0.00,,,0.00,TxWx,2013-05-19 18:33:00,
2013-05-19 13:34:00,82.0,73.0,29.79,South,180,13.0,13.0,76,0.00,,,0.00,TxWx,2013-05-19 18:34:00,
2013-05-19 13:35:00,83.0,75.0,29.79,SSW,202,8.0,11.0,76,0.00,,,0.00,TxWx,2013-05-19 18:35:00,
2013-05-19 13:37:00,83.0,74.0,29.79,South,180,21.0,21.0,76,0.00,,,0.00,TxWx,2013-05-19 18:37:00,
2013-05-19 13:39:00,83.0,74.0,29.79,SE,135,10.0,10.0,76,0.00,,,0.00,TxWx,2013-05-19 18:39:00,
2013-05-19 13:40:00,83.0,75.0,29.79,South,180,16.0,16.0,76,0.00,,,0.00,TxWx,2013-05-19 18:40:00,
2013-05-19 13:41:00,83.0,74.0,29.79,South,180,19.0,20.0,75,0.00,,,0.00,TxWx,2013-05-19 18:41:00,
2013-05-19 13:44:00,84.0,75.0,29.79,SE,135,10.0,11.0,74,0.00,,,0.00,TxWx,2013-05-19 18:44:00,
2013-05-19 13:46:00,83.0,73.0,29.79,SSW,202,16.0,18.0,73,0.00,,,0.00,TxWx,2013-05-19 18:46:00,
2013-05-19 13:47:00,83.0,73.0,29.79,SW,225,14.0,14.0,73,0.00,,,0.00,TxWx,2013-05-19 18:47:00,
2013-05-19 13:50:00,83.0,74.0,29.79,SSE,157,11.0,11.0,74,0.00,,,0.00,TxWx,2013-05-19 18:50:00,
2013-05-19 13:51:00,83.0,74.0,29.79,SSE,157,20.0,20.0,74,0.00,,,0.00,TxWx,2013-05-19 18:51:00,
2013-05-19 13:52:00,83.0,74.0,29.79,South,180,20.0,20.0,75,0.00,,,0.00,TxWx,2013-05-19 18:52:00,
2013-05-19 13:53:00,83.0,74.0,29.79,SSE,157,14.0,15.0,75,0.00,,,0.00,TxWx,2013-05-19 18:53:00,
2013-05-19 13:56:00,83.0,74.0,29.78,South,180,11.0,11.0,74,0.00,,,0.00,TxWx,2013-05-19 18:56:00,
2013-05-19 13:58:00,83.0,74.0,29.78,SE,135,9.0,10.0,75,0.00,,,0.00,TxWx,2013-05-19 18:58:00,
2013-05-19 14:00:00,83.0,74.0,29.78,SSE,157,13.0,15.0,75,0.00,,,0.00,TxWx,2013-05-19 19:00:00,
2013-05-19 14:02:00,83.0,75.0,29.78,South,180,11.0,12.0,76,0.00,,,0.00,TxWx,2013-05-19 19:02:00,
2013-05-19 14:03:00,82.0,74.0,29.78,SSW,202,18.0,19.0,77,0.00,,,0.00,TxWx,2013-05-19 19:03:00,
2013-05-19 14:04:00,82.0,74.0,29.78,South,180,17.0,17.0,77,0.00,,,0.00,TxWx,2013-05-19 19:04:00,
2013-05-19 14:05:00,83.0,75.0,29.78,SSE,157,13.0,13.0,77,0.00,,,0.00,TxWx,2013-05-19 19:05:00,
2013-05-19 14:07:00,83.0,75.0,29.78,SSW,202,17.0,17.0,76,0.00,,,0.00,TxWx,2013-05-19 19:07:00,
2013-05-19 14:09:00,82.0,74.0,29.78,SSW,202,17.0,22.0,76,0.00,,,0.00,TxWx,2013-05-19 19:09:00,
2013-05-19 14:10:00,83.0,75.0,29.78,SSE,157,12.0,13.0,77,0.00,,,0.00,TxWx,2013-05-19 19:10:00,
2013-05-19 14:11:00,83.0,75.0,29.78,SSE,157,10.0,10.0,77,0.00,,,0.00,TxWx,2013-05-19 19:11:00,
2013-05-19 14:13:00,83.0,75.0,29.78,South,180,13.0,15.0,77,0.00,,,0.00,TxWx,2013-05-19 19:13:00,
2013-05-19 14:16:00,82.0,73.0,29.78,SSW,202,19.0,19.0,76,0.00,,,0.00,TxWx,2013-05-19 19:16:00,
2013-05-19 14:17:00,83.0,75.0,29.77,SE,135,13.0,14.0,76,0.00,,,0.00,TxWx,2013-05-19 19:17:00,
2013-05-19 14:18:00,83.0,75.0,29.78,South,180,10.0,10.0,76,0.00,,,0.00,TxWx,2013-05-19 19:18:00,
2013-05-19 14:21:00,82.0,74.0,29.77,SSW,202,14.0,23.0,77,0.00,,,0.00,TxWx,2013-05-19 19:21:00,
2013-05-19 14:22:00,83.0,75.0,29.77,SSE,157,18.0,19.0,77,0.00,,,0.00,TxWx,2013-05-19 19:22:00,
2013-05-19 14:23:00,82.0,74.0,29.77,SE,135,18.0,18.0,77,0.00,,,0.00,TxWx,2013-05-19 19:23:00,
2013-05-19 14:24:00,82.0,74.0,29.77,South,180,24.0,25.0,77,0.00,,,0.00,TxWx,2013-05-19 19:24:00,
2013-05-19 14:29:00,83.0,75.0,29.77,South,180,11.0,13.0,77,0.00,,,0.00,TxWx,2013-05-19 19:29:00,
2013-05-19 14:30:00,83.0,75.0,29.77,SSE,157,10.0,11.0,77,0.00,,,0.00,TxWx,2013-05-19 19:30:00,
2013-05-19 14:31:00,82.0,74.0,29.77,South,180,17.0,17.0,77,0.00,,,0.00,TxWx,2013-05-19 19:31:00,
2013-05-19 14:35:00,83.0,75.0,29.77,South,180,19.0,24.0,77,0.00,,,0.00,TxWx,2013-05-19 19:35:00,
2013-05-19 14:36:00,83.0,75.0,29.77,South,180,11.0,11.0,76,0.00,,,0.00,TxWx,2013-05-19 19:36:00,
2013-05-19 14:37:00,82.0,73.0,29.77,SSW,202,14.0,16.0,76,0.00,,,0.00,TxWx,2013-05-19 19:37:00,
2013-05-19 14:38:00,83.0,74.0,29.77,South,180,18.0,18.0,76,0.00,,,0.00,TxWx,2013-05-19 19:38:00,
2013-05-19 14:40:00,83.0,74.0,29.76,SSE,157,13.0,13.0,76,0.00,,,0.00,TxWx,2013-05-19 19:40:00,
2013-05-19 14:42:00,83.0,74.0,29.76,SSW,202,10.0,12.0,75,0.00,,,0.00,TxWx,2013-05-19 19:42:00,
2013-05-19 14:44:00,83.0,75.0,29.77,South,180,16.0,16.0,76,0.00,,,0.00,TxWx,2013-05-19 19:44:00,
2013-05-19 14:47:00,83.0,75.0,29.76,East,90,7.0,11.0,78,0.00,,,0.00,TxWx,2013-05-19 19:47:00,
2013-05-19 14:48:00,83.0,76.0,29.76,SSW,202,11.0,11.0,79,0.00,,,0.00,TxWx,2013-05-19 19:48:00,
2013-05-19 14:51:00,83.0,75.0,29.76,SSW,202,9.0,11.0,78,0.00,,,0.00,TxWx,2013-05-19 19:51:00,
2013-05-19 14:52:00,84.0,76.0,29.76,SSE,157,8.0,8.0,78,0.00,,,0.00,TxWx,2013-05-19 19:52:00,
2013-05-19 14:53:00,84.0,76.0,29.76,South,180,14.0,14.0,78,0.00,,,0.00,TxWx,2013-05-19 19:53:00,
2013-05-19 14:58:00,82.0,74.0,29.76,SSE,157,21.0,22.0,78,0.00,,,0.00,TxWx,2013-05-19 19:58:00,
2013-05-19 14:59:00,82.0,75.0,29.76,SSW,202,14.0,16.0,79,0.00,,,0.00,TxWx,2013-05-19 19:59:00,
2013-05-19 15:00:00,82.0,75.0,29.76,SSE,157,19.0,22.0,79,0.00,,,0.00,TxWx,2013-05-19 20:00:00,
2013-05-19 15:04:00,82.0,74.0,29.76,South,180,26.0,26.0,78,0.00,,,0.00,TxWx,2013-05-19 20:04:00,
2013-05-19 15:05:00,82.0,75.0,29.76,SSE,157,21.0,24.0,79,0.00,,,0.00,TxWx,2013-05-19 20:05:00,
2013-05-19 15:06:00,82.0,75.0,29.76,SSW,202,14.0,16.0,80,0.00,,,0.00,TxWx,2013-05-19 20:06:00,
2013-05-19 15:08:00,82.0,74.0,29.76,SSW,202,18.0,23.0,78,0.00,,,0.00,TxWx,2013-05-19 20:08:00,
2013-05-19 15:10:00,83.0,76.0,29.76,South,180,7.0,7.0,80,0.00,,,0.00,TxWx,2013-05-19 20:10:00,
2013-05-19 15:11:00,83.0,76.0,29.76,SSW,202,19.0,19.0,80,0.00,,,0.00,TxWx,2013-05-19 20:11:00,
2013-05-19 15:14:00,83.0,76.0,29.76,South,180,14.0,14.0,80,0.00,,,0.00,TxWx,2013-05-19 20:14:00,
2013-05-19 15:15:00,83.0,76.0,29.76,SSE,157,20.0,20.0,79,0.00,,,0.00,TxWx,2013-05-19 20:15:00,
2013-05-19 15:17:00,83.0,75.0,29.76,SSE,157,10.0,10.0,77,0.00,,,0.00,TxWx,2013-05-19 20:17:00,
2013-05-19 15:19:00,83.0,75.0,29.76,SSW,202,13.0,13.0,78,0.00,,,0.00,TxWx,2013-05-19 20:19:00,
2013-05-19 15:21:00,83.0,76.0,29.75,SSE,157,11.0,16.0,79,0.00,,,0.00,TxWx,2013-05-19 20:21:00,
2013-05-19 15:22:00,84.0,77.0,29.76,SSW,202,13.0,13.0,79,0.00,,,0.00,TxWx,2013-05-19 20:22:00,
2013-05-19 15:23:00,83.0,76.0,29.76,SW,225,15.0,15.0,79,0.00,,,0.00,TxWx,2013-05-19 20:23:00,
2013-05-19 15:24:00,83.0,75.0,29.75,SSW,202,8.0,8.0,78,0.00,,,0.00,TxWx,2013-05-19 20:24:00,
2013-05-19 15:27:00,83.0,75.0,29.75,SSE,157,11.0,14.0,78,0.00,,,0.00,TxWx,2013-05-19 20:27:00,
2013-05-19 15:28:00,82.0,74.0,29.75,SSE,157,18.0,20.0,77,0.00,,,0.00,TxWx,2013-05-19 20:28:00,
2013-05-19 15:29:00,82.0,74.0,29.75,South,180,17.0,18.0,78,0.00,,,0.00,TxWx,2013-05-19 20:29:00,
2013-05-19 15:30:00,82.0,75.0,29.75,South,180,14.0,14.0,79,0.00,,,0.00,TxWx,2013-05-19 20:30:00,
2013-05-19 15:32:00,83.0,76.0,29.75,South,180,12.0,12.0,80,0.00,,,0.00,TxWx,2013-05-19 20:32:00,
2013-05-19 15:34:00,83.0,75.0,29.75,South,180,13.0,13.0,78,0.00,,,0.00,TxWx,2013-05-19 20:34:00,
2013-05-19 15:35:00,83.0,75.0,29.75,South,180,22.0,22.0,78,0.00,,,0.00,TxWx,2013-05-19 20:35:00,
2013-05-19 15:38:00,83.0,76.0,29.74,SSE,157,14.0,18.0,79,0.00,,,0.00,TxWx,2013-05-19 20:38:00,
2013-05-19 15:40:00,82.0,74.0,29.74,SSE,157,16.0,16.0,77,0.00,,,0.00,TxWx,2013-05-19 20:40:00,
2013-05-19 15:44:00,83.0,75.0,29.74,South,180,13.0,13.0,78,0.00,,,0.00,TxWx,2013-05-19 20:44:00,
2013-05-19 15:45:00,83.0,76.0,29.74,SSE,157,27.0,27.0,79,0.00,,,0.00,TxWx,2013-05-19 20:45:00,
2013-05-19 15:46:00,83.0,76.0,29.74,South,180,17.0,17.0,79,0.00,,,0.00,TxWx,2013-05-19 20:46:00,
2013-05-19 15:48:00,83.0,76.0,29.74,SSE,157,19.0,21.0,79,0.00,,,0.00,TxWx,2013-05-19 20:48:00,
2013-05-19 15:49:00,83.0,76.0,29.74,South,180,17.0,17.0,79,0.00,,,0.00,TxWx,2013-05-19 20:49:00,
2013-05-19 15:51:00,83.0,76.0,29.74,SSE,157,13.0,14.0,79,0.00,,,0.00,TxWx,2013-05-19 20:51:00,
2013-05-19 15:52:00,83.0,76.0,29.74,SSW,202,7.0,8.0,79,0.00,,,0.00,TxWx,2013-05-19 20:52:00,
2013-05-19 15:53:00,83.0,76.0,29.74,SSW,202,14.0,15.0,79,0.00,,,0.00,TxWx,2013-05-19 20:53:00,
2013-05-19 15:55:00,83.0,76.0,29.74,South,180,19.0,19.0,79,0.00,,,0.00,TxWx,2013-05-19 20:55:00,
2013-05-19 15:57:00,83.0,76.0,29.74,South,180,16.0,16.0,80,0.00,,,0.00,TxWx,2013-05-19 20:57:00,
2013-05-19 15:58:00,82.0,75.0,29.74,SSE,157,21.0,23.0,79,0.00,,,0.00,TxWx,2013-05-19 20:58:00,
2013-05-19 15:59:00,82.0,75.0,29.74,South,180,12.0,14.0,79,0.00,,,0.00,TxWx,2013-05-19 20:59:00,
2013-05-19 16:00:00,83.0,76.0,29.74,South,180,15.0,15.0,80,0.00,,,0.00,TxWx,2013-05-19 21:00:00,
2013-05-19 16:02:00,83.0,76.0,29.74,SSE,157,8.0,8.0,81,0.00,,,0.00,TxWx,2013-05-19 21:02:00,
2013-05-19 16:03:00,83.0,76.0,29.74,SW,225,13.0,13.0,80,0.00,,,0.00,TxWx,2013-05-19 21:03:00,
2013-05-19 16:04:00,82.0,75.0,29.74,South,180,19.0,23.0,80,0.00,,,0.00,TxWx,2013-05-19 21:04:00,
2013-05-19 16:05:00,82.0,75.0,29.73,South,180,17.0,19.0,79,0.00,,,0.00,TxWx,2013-05-19 21:05:00,
2013-05-19 16:06:00,82.0,75.0,29.74,South,180,21.0,21.0,80,0.00,,,0.00,TxWx,2013-05-19 21:06:00,
2013-05-19 16:07:00,82.0,75.0,29.74,SSW,202,21.0,21.0,80,0.00,,,0.00,TxWx,2013-05-19 21:07:00,
2013-05-19 16:08:00,82.0,75.0,29.73,South,180,14.0,15.0,80,0.00,,,0.00,TxWx,2013-05-19 21:08:00,
2013-05-19 16:09:00,82.0,75.0,29.73,SSE,157,10.0,18.0,80,0.00,,,0.00,TxWx,2013-05-19 21:09:00,
2013-05-19 16:12:00,82.0,75.0,29.73,SSW,202,11.0,12.0,81,0.00,,,0.00,TxWx,2013-05-19 21:12:00,
2013-05-19 16:13:00,83.0,76.0,29.73,SSE,157,20.0,22.0,81,0.00,,,0.00,TxWx,2013-05-19 21:13:00,
2013-05-19 16:14:00,83.0,76.0,29.73,SSW,202,13.0,16.0,81,0.00,,,0.00,TxWx,2013-05-19 21:14:00,
2013-05-19 16:15:00,82.0,75.0,29.73,SSE,157,21.0,21.0,81,0.00,,,0.00,TxWx,2013-05-19 21:15:00,
2013-05-19 16:18:00,82.0,76.0,29.73,South,180,18.0,18.0,81,0.00,,,0.00,TxWx,2013-05-19 21:18:00,
2013-05-19 16:20:00,82.0,75.0,29.73,South,180,18.0,18.0,81,0.00,,,0.00,TxWx,2013-05-19 21:20:00,
2013-05-19 16:21:00,82.0,75.0,29.73,South,180,17.0,18.0,81,0.00,,,0.00,TxWx,2013-05-19 21:21:00,
2013-05-19 16:24:00,82.0,76.0,29.73,SSE,157,11.0,11.0,81,0.00,,,0.00,TxWx,2013-05-19 21:24:00,
2013-05-19 16:26:00,83.0,77.0,29.73,South,180,11.0,13.0,81,0.00,,,0.00,TxWx,2013-05-19 21:26:00,
2013-05-19 16:31:00,82.0,76.0,29.73,SSE,157,18.0,18.0,81,0.00,,,0.00,TxWx,2013-05-19 21:31:00,
2013-05-19 16:32:00,82.0,76.0,29.73,SSE,157,13.0,13.0,82,0.00,,,0.00,TxWx,2013-05-19 21:32:00,
2013-05-19 16:33:00,82.0,76.0,29.73,SE,135,29.0,29.0,82,0.00,,,0.00,TxWx,2013-05-19 21:33:00,
2013-05-19 16:34:00,82.0,76.0,29.73,South,180,13.0,18.0,82,0.00,,,0.00,TxWx,2013-05-19 21:34:00,
2013-05-19 16:37:00,82.0,76.0,29.73,SSE,157,14.0,16.0,83,0.00,,,0.00,TxWx,2013-05-19 21:37:00,
2013-05-19 16:38:00,82.0,76.0,29.73,SE,135,11.0,11.0,83,0.00,,,0.00,TxWx,2013-05-19 21:38:00,
2013-05-19 16:39:00,82.0,76.0,29.73,SSE,157,21.0,21.0,83,0.00,,,0.00,TxWx,2013-05-19 21:39:00,
2013-05-19 16:43:00,82.0,76.0,29.72,SSE,157,14.0,14.0,83,0.00,,,0.00,TxWx,2013-05-19 21:43:00,
2013-05-19 16:45:00,82.0,76.0,29.72,SSE,157,19.0,19.0,82,0.00,,,0.00,TxWx,2013-05-19 21:45:00,
2013-05-19 16:48:00,82.0,76.0,29.72,SSE,157,13.0,15.0,82,0.00,,,0.00,TxWx,2013-05-19 21:48:00,
2013-05-19 16:49:00,82.0,76.0,29.73,South,180,17.0,17.0,83,0.00,,,0.00,TxWx,2013-05-19 21:49:00,
2013-05-19 16:50:00,82.0,76.0,29.73,SSE,157,12.0,13.0,83,0.00,,,0.00,TxWx,2013-05-19 21:50:00,
2013-05-19 16:51:00,82.0,76.0,29.73,SE,135,13.0,13.0,83,0.00,,,0.00,TxWx,2013-05-19 21:51:00,
2013-05-19 16:55:00,82.0,76.0,29.73,SSE,157,12.0,16.0,83,0.00,,,0.00,TxWx,2013-05-19 21:55:00,
2013-05-19 16:56:00,82.0,76.0,29.73,South,180,13.0,16.0,83,0.00,,,0.00,TxWx,2013-05-19 21:56:00,
2013-05-19 16:58:00,81.0,75.0,29.73,South,180,16.0,19.0,83,0.00,,,0.00,TxWx,2013-05-19 21:58:00,
2013-05-19 17:01:00,81.0,75.0,29.73,SSE,157,19.0,22.0,83,0.00,,,0.00,TxWx,2013-05-19 22:01:00,
2013-05-19 17:03:00,81.0,76.0,29.73,SSE,157,18.0,18.0,84,0.00,,,0.00,TxWx,2013-05-19 22:03:00,
2013-05-19 17:04:00,82.0,76.0,29.73,SSE,157,9.0,10.0,84,0.00,,,0.00,TxWx,2013-05-19 22:04:00,
2013-05-19 17:08:00,81.0,76.0,29.73,SE,135,15.0,15.0,83,0.00,,,0.00,TxWx,2013-05-19 22:08:00,
2013-05-19 17:09:00,82.0,77.0,29.73,SSW,202,10.0,10.0,84,0.00,,,0.00,TxWx,2013-05-19 22:09:00,
2013-05-19 17:10:00,82.0,76.0,29.73,SSW,202,16.0,16.0,84,0.00,,,0.00,TxWx,2013-05-19 22:10:00,
2013-05-19 17:11:00,81.0,75.0,29.73,SSE,157,17.0,17.0,83,0.00,,,0.00,TxWx,2013-05-19 22:11:00,
2013-05-19 17:14:00,81.0,76.0,29.73,South,180,17.0,21.0,84,0.00,,,0.00,TxWx,2013-05-19 22:14:00,
2013-05-19 17:15:00,81.0,76.0,29.73,SSW,202,15.0,16.0,84,0.00,,,0.00,TxWx,2013-05-19 22:15:00,
2013-05-19 17:16:00,81.0,76.0,29.73,SE,135,16.0,18.0,84,0.00,,,0.00,TxWx,2013-05-19 22:16:00,
2013-05-19 17:17:00,81.0,76.0,29.73,SSE,157,14.0,15.0,85,0.00,,,0.00,TxWx,2013-05-19 22:17:00,
2013-05-19 17:19:00,81.0,76.0,29.73,SSE,157,18.0,18.0,84,0.00,,,0.00,TxWx,2013-05-19 22:19:00,
2013-05-19 17:20:00,81.0,76.0,29.73,SE,135,10.0,13.0,84,0.00,,,0.00,TxWx,2013-05-19 22:20:00,
2013-05-19 17:21:00,81.0,76.0,29.73,SSW,202,16.0,16.0,85,0.00,,,0.00,TxWx,2013-05-19 22:21:00,
2013-05-19 17:22:00,81.0,76.0,29.72,SW,225,8.0,8.0,85,0.00,,,0.00,TxWx,2013-05-19 22:22:00,
2013-05-19 17:25:00,81.0,76.0,29.73,SSE,157,19.0,19.0,85,0.00,,,0.00,TxWx,2013-05-19 22:25:00,
2013-05-19 17:26:00,81.0,76.0,29.73,South,180,18.0,21.0,85,0.00,,,0.00,TxWx,2013-05-19 22:26:00,
2013-05-19 17:27:00,81.0,76.0,29.73,South,180,23.0,23.0,85,0.00,,,0.00,TxWx,2013-05-19 22:27:00,
2013-05-19 17:28:00,81.0,76.0,29.73,SSE,157,17.0,19.0,85,0.00,,,0.00,TxWx,2013-05-19 22:28:00,
2013-05-19 17:29:00,81.0,76.0,29.73,SSE,157,21.0,21.0,85,0.00,,,0.00,TxWx,2013-05-19 22:29:00,
2013-05-19 17:32:00,81.0,76.0,29.73,South,180,8.0,8.0,86,0.00,,,0.00,TxWx,2013-05-19 22:32:00,
2013-05-19 17:33:00,81.0,76.0,29.73,South,180,8.0,10.0,85,0.00,,,0.00,TxWx,2013-05-19 22:33:00,
2013-05-19 17:36:00,81.0,76.0,29.73,SSE,157,13.0,13.0,86,0.00,,,0.00,TxWx,2013-05-19 22:36:00,
2013-05-19 17:37:00,81.0,76.0,29.73,SSE,157,11.0,13.0,86,0.00,,,0.00,TxWx,2013-05-19 22:37:00,
2013-05-19 17:38:00,81.0,76.0,29.73,SSE,157,18.0,18.0,86,0.00,,,0.00,TxWx,2013-05-19 22:38:00,
2013-05-19 17:39:00,81.0,76.0,29.73,South,180,16.0,16.0,86,0.00,,,0.00,TxWx,2013-05-19 22:39:00,
2013-05-19 17:43:00,81.0,76.0,29.73,SE,135,11.0,11.0,86,0.00,,,0.00,TxWx,2013-05-19 22:43:00,
2013-05-19 17:44:00,81.0,76.0,29.73,SSE,157,19.0,21.0,86,0.00,,,0.00,TxWx,2013-05-19 22:44:00,
2013-05-19 17:45:00,81.0,76.0,29.73,South,180,13.0,13.0,86,0.00,,,0.00,TxWx,2013-05-19 22:45:00,
2013-05-19 17:49:00,81.0,76.0,29.73,SE,135,14.0,14.0,86,0.00,,,0.00,TxWx,2013-05-19 22:49:00,
2013-05-19 17:50:00,81.0,76.0,29.73,SE,135,15.0,15.0,86,0.00,,,0.00,TxWx,2013-05-19 22:50:00,
2013-05-19 17:51:00,81.0,76.0,29.73,SSE,157,13.0,13.0,86,0.00,,,0.00,TxWx,2013-05-19 22:51:00,
2013-05-19 17:53:00,81.0,76.0,29.73,SSE,157,14.0,14.0,86,0.00,,,0.00,TxWx,2013-05-19 22:53:00,
2013-05-19 17:55:00,81.0,77.0,29.73,South,180,14.0,14.0,87,0.00,,,0.00,TxWx,2013-05-19 22:55:00,
2013-05-19 17:56:00,81.0,76.0,29.73,South,180,11.0,12.0,86,0.00,,,0.00,TxWx,2013-05-19 22:56:00,
2013-05-19 17:58:00,81.0,76.0,29.73,SSW,202,6.0,7.0,86,0.00,,,0.00,TxWx,2013-05-19 22:58:00,
2013-05-19 18:02:00,81.0,76.0,29.73,South,180,13.0,16.0,86,0.00,,,0.00,TxWx,2013-05-19 23:02:00,
2013-05-19 18:03:00,81.0,76.0,29.73,SSE,157,21.0,21.0,86,0.00,,,0.00,TxWx,2013-05-19 23:03:00,
2013-05-19 18:06:00,81.0,76.0,29.73,South,180,8.0,11.0,86,0.00,,,0.00,TxWx,2013-05-19 23:06:00,
2013-05-19 18:08:00,80.0,75.0,29.73,South,180,10.0,14.0,86,0.00,,,0.00,TxWx,2013-05-19 23:08:00,
2013-05-19 18:09:00,80.0,76.0,29.73,SE,135,12.0,12.0,87,0.00,,,0.00,TxWx,2013-05-19 23:09:00,
2013-05-19 18:11:00,80.0,76.0,29.73,SSE,157,18.0,20.0,87,0.00,,,0.00,TxWx,2013-05-19 23:11:00,
2013-05-19 18:12:00,80.0,76.0,29.73,South,180,19.0,20.0,87,0.00,,,0.00,TxWx,2013-05-19 23:12:00,
2013-05-19 18:15:00,80.0,76.0,29.73,SE,135,14.0,16.0,88,0.00,,,0.00,TxWx,2013-05-19 23:15:00,
2013-05-19 18:16:00,80.0,76.0,29.74,South,180,20.0,20.0,88,0.00,,,0.00,TxWx,2013-05-19 23:16:00,
2013-05-19 18:18:00,80.0,76.0,29.73,SSE,157,9.0,9.0,88,0.00,,,0.00,TxWx,2013-05-19 23:18:00,
2013-05-19 18:22:00,80.0,76.0,29.73,SSW,202,6.0,8.0,88,0.00,,,0.00,TxWx,2013-05-19 23:22:00,
2013-05-19 18:23:00,81.0,77.0,29.73,SSE,157,13.0,13.0,88,0.00,,,0.00,TxWx,2013-05-19 23:23:00,
2013-05-19 18:24:00,81.0,77.0,29.73,SSE,157,14.0,14.0,87,0.00,,,0.00,TxWx,2013-05-19 23:24:00,
2013-05-19 18:28:00,80.0,76.0,29.73,SSE,157,15.0,15.0,87,0.00,,,0.00,TxWx,2013-05-19 23:28:00,
2013-05-19 18:29:00,80.0,76.0,29.73,SSE,157,12.0,12.0,87,0.00,,,0.00,TxWx,2013-05-19 23:29:00,
2013-05-19 18:30:00,80.0,76.0,29.73,SW,225,13.0,14.0,87,0.00,,,0.00,TxWx,2013-05-19 23:30:00,
2013-05-19 18:33:00,80.0,76.0,29.73,SE,135,10.0,10.0,88,0.00,,,0.00,TxWx,2013-05-19 23:33:00,
2013-05-19 18:34:00,80.0,76.0,29.73,SSE,157,19.0,19.0,88,0.00,,,0.00,TxWx,2013-05-19 23:34:00,
2013-05-19 18:35:00,80.0,76.0,29.73,SSE,157,11.0,13.0,88,0.00,,,0.00,TxWx,2013-05-19 23:35:00,
2013-05-19 18:36:00,80.0,76.0,29.73,South,180,14.0,14.0,88,0.00,,,0.00,TxWx,2013-05-19 23:36:00,
2013-05-19 18:40:00,80.0,76.0,29.73,South,180,9.0,11.0,88,0.00,,,0.00,TxWx,2013-05-19 23:40:00,
2013-05-19 18:43:00,80.0,76.0,29.73,SSW,202,10.0,11.0,88,0.00,,,0.00,TxWx,2013-05-19 23:43:00,
2013-05-19 18:44:00,80.0,76.0,29.73,SSW,202,8.0,11.0,88,0.00,,,0.00,TxWx,2013-05-19 23:44:00,
2013-05-19 18:45:00,80.0,76.0,29.73,South,180,18.0,18.0,88,0.00,,,0.00,TxWx,2013-05-19 23:45:00,
2013-05-19 18:47:00,80.0,76.0,29.73,SSE,157,10.0,10.0,88,0.00,,,0.00,TxWx,2013-05-19 23:47:00,
2013-05-19 18:48:00,80.0,76.0,29.73,SSE,157,16.0,18.0,88,0.00,,,0.00,TxWx,2013-05-19 23:48:00,
2013-05-19 18:49:00,80.0,76.0,29.73,SE,135,12.0,14.0,88,0.00,,,0.00,TxWx,2013-05-19 23:49:00,
2013-05-19 18:54:00,80.0,76.0,29.73,SSE,157,17.0,20.0,88,0.00,,,0.00,TxWx,2013-05-19 23:54:00,
2013-05-19 18:55:00,80.0,76.0,29.73,SSE,157,17.0,17.0,88,0.00,,,0.00,TxWx,2013-05-19 23:55:00,
2013-05-19 18:56:00,80.0,76.0,29.73,South,180,15.0,16.0,89,0.00,,,0.00,TxWx,2013-05-19 23:56:00,
2013-05-19 18:57:00,80.0,76.0,29.73,South,180,9.0,11.0,89,0.00,,,0.00,TxWx,2013-05-19 23:57:00,
2013-05-19 19:00:00,80.0,76.0,29.74,SE,135,15.0,15.0,89,0.00,,,0.00,TxWx,2013-05-20 00:00:00,
2013-05-19 19:01:00,80.0,76.0,29.73,SSE,157,21.0,25.0,89,0.00,,,0.00,TxWx,2013-05-20 00:01:00,
2013-05-19 19:02:00,80.0,76.0,29.74,SSW,202,19.0,20.0,89,0.00,,,0.00,TxWx,2013-05-20 00:02:00,
2013-05-19 19:03:00,80.0,76.0,29.74,SSW,202,14.0,17.0,89,0.00,,,0.00,TxWx,2013-05-20 00:03:00,
2013-05-19 19:07:00,80.0,76.0,29.74,SSW,202,11.0,13.0,89,0.00,,,0.00,TxWx,2013-05-20 00:07:00,
2013-05-19 19:08:00,80.0,76.0,29.73,South,180,15.0,19.0,89,0.00,,,0.00,TxWx,2013-05-20 00:08:00,
2013-05-19 19:09:00,80.0,76.0,29.74,SW,225,11.0,14.0,89,0.00,,,0.00,TxWx,2013-05-20 00:09:00,
2013-05-19 19:13:00,80.0,76.0,29.74,ESE,112,10.0,11.0,89,0.00,,,0.00,TxWx,2013-05-20 00:13:00,
2013-05-19 19:14:00,80.0,76.0,29.74,SSE,157,11.0,13.0,89,0.00,,,0.00,TxWx,2013-05-20 00:14:00,
2013-05-19 19:15:00,80.0,76.0,29.73,SSW,202,6.0,8.0,89,0.00,,,0.00,TxWx,2013-05-20 00:15:00,
2013-05-19 19:16:00,80.0,77.0,29.74,SSW,202,10.0,11.0,90,0.00,,,0.00,TxWx,2013-05-20 00:16:00,
2013-05-19 19:18:00,80.0,77.0,29.74,South,180,11.0,14.0,90,0.00,,,0.00,TxWx,2013-05-20 00:18:00,
2013-05-19 19:19:00,80.0,77.0,29.74,East,90,5.0,5.0,90,0.00,,,0.00,TxWx,2013-05-20 00:19:00,
2013-05-19 19:21:00,80.0,76.0,29.74,SSW,202,16.0,16.0,89,0.00,,,0.00,TxWx,2013-05-20 00:21:00,
2013-05-19 19:23:00,80.0,77.0,29.74,SSE,157,17.0,17.0,90,0.00,,,0.00,TxWx,2013-05-20 00:23:00,
2013-05-19 19:24:00,79.0,76.0,29.74,SSE,157,18.0,18.0,90,0.00,,,0.00,TxWx,2013-05-20 00:24:00,
2013-05-19 19:26:00,79.0,76.0,29.74,SW,225,9.0,9.0,90,0.00,,,0.00,TxWx,2013-05-20 00:26:00,
2013-05-19 19:28:00,79.0,76.0,29.74,SSW,202,15.0,15.0,90,0.00,,,0.00,TxWx,2013-05-20 00:28:00,
2013-05-19 19:29:00,79.0,76.0,29.74,South,180,9.0,9.0,90,0.00,,,0.00,TxWx,2013-05-20 00:29:00,
2013-05-19 19:30:00,79.0,76.0,29.74,South,180,24.0,24.0,90,0.00,,,0.00,TxWx,2013-05-20 00:30:00,
2013-05-19 19:31:00,79.0,76.0,29.74,South,180,11.0,13.0,90,0.00,,,0.00,TxWx,2013-05-20 00:31:00,
2013-05-19 19:33:00,79.0,76.0,29.74,SSE,157,15.0,16.0,90,0.00,,,0.00,TxWx,2013-05-20 00:33:00,
2013-05-19 19:35:00,79.0,76.0,29.74,SE,135,7.0,8.0,91,0.00,,,0.00,TxWx,2013-05-20 00:35:00,
2013-05-19 19:36:00,79.0,76.0,29.74,SSE,157,11.0,12.0,91,0.00,,,0.00,TxWx,2013-05-20 00:36:00,
2013-05-19 19:38:00,79.0,76.0,29.74,South,180,7.0,8.0,91,0.00,,,0.00,TxWx,2013-05-20 00:38:00,
2013-05-19 19:39:00,79.0,76.0,29.74,SSW,202,18.0,18.0,90,0.00,,,0.00,TxWx,2013-05-20 00:39:00,
2013-05-19 19:41:00,79.0,76.0,29.74,SSE,157,14.0,14.0,91,0.00,,,0.00,TxWx,2013-05-20 00:41:00,
2013-05-19 19:44:00,79.0,76.0,29.74,SE,135,15.0,15.0,91,0.00,,,0.00,TxWx,2013-05-20 00:44:00,
2013-05-19 19:45:00,79.0,76.0,29.74,SSE,157,11.0,13.0,91,0.00,,,0.00,TxWx,2013-05-20 00:45:00,
2013-05-19 19:47:00,79.0,76.0,29.74,SSE,157,12.0,12.0,91,0.00,,,0.00,TxWx,2013-05-20 00:47:00,
2013-05-19 19:50:00,79.0,76.0,29.74,SE,135,13.0,13.0,91,0.00,,,0.00,TxWx,2013-05-20 00:50:00,
2013-05-19 19:51:00,79.0,76.0,29.74,ESE,112,8.0,8.0,91,0.00,,,0.00,TxWx,2013-05-20 00:51:00,
2013-05-19 19:55:00,79.0,76.0,29.74,SSW,202,13.0,13.0,91,0.00,,,0.00,TxWx,2013-05-20 00:55:00,
2013-05-19 19:56:00,79.0,76.0,29.75,SSE,157,10.0,11.0,91,0.00,,,0.00,TxWx,2013-05-20 00:56:00,
2013-05-19 19:58:00,79.0,76.0,29.75,SE,135,13.0,14.0,91,0.00,,,0.00,TxWx,2013-05-20 00:58:00,
2013-05-19 20:00:00,79.0,76.0,29.75,SSE,157,14.0,14.0,91,0.00,,,0.00,TxWx,2013-05-20 01:00:00,
2013-05-19 20:01:00,79.0,76.0,29.75,SW,225,8.0,10.0,91,0.00,,,0.00,TxWx,2013-05-20 01:01:00,
2013-05-19 20:04:00,79.0,76.0,29.75,SW,225,11.0,13.0,91,0.00,,,0.00,TxWx,2013-05-20 01:04:00,
2013-05-19 20:05:00,79.0,76.0,29.75,SSE,157,14.0,14.0,91,0.00,,,0.00,TxWx,2013-05-20 01:05:00,
2013-05-19 20:06:00,79.0,76.0,29.75,SSW,202,7.0,8.0,91,0.00,,,0.00,TxWx,2013-05-20 01:06:00,
2013-05-19 20:10:00,79.0,76.0,29.75,SSE,157,8.0,11.0,91,0.00,,,0.00,TxWx,2013-05-20 01:10:00,
2013-05-19 20:11:00,79.0,76.0,29.75,SE,135,18.0,18.0,91,0.00,,,0.00,TxWx,2013-05-20 01:11:00,
2013-05-19 20:13:00,79.0,76.0,29.75,South,180,10.0,10.0,91,0.00,,,0.00,TxWx,2013-05-20 01:13:00,
2013-05-19 20:16:00,79.0,76.0,29.76,South,180,16.0,16.0,91,0.00,,,0.00,TxWx,2013-05-20 01:16:00,
2013-05-19 20:17:00,79.0,76.0,29.76,SE,135,11.0,11.0,91,0.00,,,0.00,TxWx,2013-05-20 01:17:00,
2013-05-19 20:18:00,79.0,76.0,29.76,SSE,157,11.0,11.0,92,0.00,,,0.00,TxWx,2013-05-20 01:18:00,
2013-05-19 20:19:00,79.0,76.0,29.76,SSE,157,13.0,15.0,92,0.00,,,0.00,TxWx,2013-05-20 01:19:00,
2013-05-19 20:22:00,79.0,76.0,29.76,South,180,11.0,12.0,92,0.00,,,0.00,TxWx,2013-05-20 01:22:00,
2013-05-19 20:24:00,79.0,76.0,29.76,ESE,112,8.0,13.0,92,0.00,,,0.00,TxWx,2013-05-20 01:24:00,
2013-05-19 20:26:00,79.0,76.0,29.76,SSW,202,11.0,12.0,92,0.00,,,0.00,TxWx,2013-05-20 01:26:00,
2013-05-19 20:28:00,79.0,76.0,29.76,South,180,12.0,13.0,92,0.00,,,0.00,TxWx,2013-05-20 01:28:00,
2013-05-19 20:30:00,79.0,76.0,29.76,SE,135,8.0,10.0,92,0.00,,,0.00,TxWx,2013-05-20 01:30:00,
2013-05-19 20:31:00,79.0,76.0,29.76,SSE,157,8.0,10.0,92,0.00,,,0.00,TxWx,2013-05-20 01:31:00,
2013-05-19 20:36:00,79.0,76.0,29.76,SE,135,13.0,14.0,91,0.00,,,0.00,TxWx,2013-05-20 01:36:00,
2013-05-19 20:37:00,79.0,76.0,29.76,South,180,15.0,16.0,91,0.00,,,0.00,TxWx,2013-05-20 01:37:00,
2013-05-19 20:38:00,79.0,76.0,29.76,SSE,157,13.0,13.0,92,0.00,,,0.00,TxWx,2013-05-20 01:38:00,
2013-05-19 20:41:00,79.0,76.0,29.77,SE,135,14.0,14.0,91,0.00,,,0.00,TxWx,2013-05-20 01:41:00,
2013-05-19 20:42:00,79.0,76.0,29.77,South,180,21.0,21.0,91,0.00,,,0.00,TxWx,2013-05-20 01:42:00,
2013-05-19 20:44:00,79.0,76.0,29.77,SSE,157,11.0,13.0,91,0.00,,,0.00,TxWx,2013-05-20 01:44:00,
2013-05-19 20:45:00,79.0,76.0,29.77,SSW,202,10.0,11.0,91,0.00,,,0.00,TxWx,2013-05-20 01:45:00,
2013-05-19 20:46:00,79.0,76.0,29.77,SSE,157,14.0,14.0,91,0.00,,,0.00,TxWx,2013-05-20 01:46:00,
2013-05-19 20:50:00,79.0,76.0,29.77,ESE,112,8.0,10.0,91,0.00,,,0.00,TxWx,2013-05-20 01:50:00,
2013-05-19 20:51:00,79.0,76.0,29.77,SE,135,18.0,18.0,91,0.00,,,0.00,TxWx,2013-05-20 01:51:00,
2013-05-19 20:52:00,79.0,76.0,29.77,South,180,11.0,13.0,91,0.00,,,0.00,TxWx,2013-05-20 01:52:00,
2013-05-19 20:53:00,79.0,76.0,29.77,South,180,10.0,13.0,91,0.00,,,0.00,TxWx,2013-05-20 01:53:00,
2013-05-19 20:56:00,79.0,76.0,29.77,SSW,202,8.0,9.0,91,0.00,,,0.00,TxWx,2013-05-20 01:56:00,
2013-05-19 20:57:00,79.0,76.0,29.77,SSE,157,18.0,18.0,91,0.00,,,0.00,TxWx,2013-05-20 01:57:00,
2013-05-19 20:59:00,79.0,76.0,29.77,South,180,6.0,7.0,91,0.00,,,0.00,TxWx,2013-05-20 01:59:00,
2013-05-19 21:01:00,79.0,76.0,29.77,SSE,157,8.0,9.0,91,0.00,,,0.00,TxWx,2013-05-20 02:01:00,
2013-05-19 21:02:00,79.0,76.0,29.77,SE,135,6.0,7.0,91,0.00,,,0.00,TxWx,2013-05-20 02:02:00,
2013-05-19 21:04:00,79.0,76.0,29.77,East,90,7.0,10.0,91,0.00,,,0.00,TxWx,2013-05-20 02:04:00,
2013-05-19 21:05:00,79.0,76.0,29.77,SSE,157,11.0,11.0,91,0.00,,,0.00,TxWx,2013-05-20 02:05:00,
2013-05-19 21:07:00,79.0,76.0,29.77,South,180,10.0,11.0,91,0.00,,,0.00,TxWx,2013-05-20 02:07:00,
2013-05-19 21:09:00,79.0,76.0,29.78,South,180,13.0,13.0,91,0.00,,,0.00,TxWx,2013-05-20 02:09:00,
2013-05-19 21:10:00,79.0,76.0,29.78,SSE,157,10.0,10.0,91,0.00,,,0.00,TxWx,2013-05-20 02:10:00,
2013-05-19 21:12:00,79.0,76.0,29.78,SSE,157,8.0,8.0,91,0.00,,,0.00,TxWx,2013-05-20 02:12:00,
2013-05-19 21:13:00,79.0,76.0,29.78,SE,135,6.0,8.0,91,0.00,,,0.00,TxWx,2013-05-20 02:13:00,
2013-05-19 21:15:00,79.0,76.0,29.78,SE,135,13.0,13.0,91,0.00,,,0.00,TxWx,2013-05-20 02:15:00,
2013-05-19 21:16:00,79.0,76.0,29.78,South,180,7.0,7.0,91,0.00,,,0.00,TxWx,2013-05-20 02:16:00,
2013-05-19 21:18:00,79.0,76.0,29.78,SSE,157,8.0,9.0,91,0.00,,,0.00,TxWx,2013-05-20 02:18:00,
2013-05-19 21:21:00,79.0,76.0,29.78,SSW,202,7.0,7.0,91,0.00,,,0.00,TxWx,2013-05-20 02:21:00,
2013-05-19 21:22:00,79.0,76.0,29.78,SSE,157,16.0,16.0,91,0.00,,,0.00,TxWx,2013-05-20 02:22:00,
2013-05-19 21:23:00,79.0,76.0,29.78,SE,135,13.0,13.0,91,0.00,,,0.00,TxWx,2013-05-20 02:23:00,
2013-05-19 21:25:00,79.0,76.0,29.79,SE,135,12.0,12.0,91,0.00,,,0.00,TxWx,2013-05-20 02:25:00,
2013-05-19 21:26:00,79.0,76.0,29.78,South,180,10.0,11.0,91,0.00,,,0.00,TxWx,2013-05-20 02:26:00,
2013-05-19 21:28:00,79.0,76.0,29.78,SSW,202,8.0,8.0,91,0.00,,,0.00,TxWx,2013-05-20 02:28:00,
2013-05-19 21:29:00,79.0,76.0,29.78,South,180,19.0,19.0,91,0.00,,,0.00,TxWx,2013-05-20 02:29:00,
2013-05-19 21:31:00,79.0,76.0,29.79,SSE,157,11.0,13.0,91,0.00,,,0.00,TxWx,2013-05-20 02:31:00,
2013-05-19 21:32:00,79.0,76.0,29.79,South,180,6.0,6.0,92,0.00,,,0.00,TxWx,2013-05-20 02:32:00,
2013-05-19 21:33:00,79.0,76.0,29.79,SSE,157,5.0,6.0,92,0.00,,,0.00,TxWx,2013-05-20 02:33:00,
2013-05-19 21:38:00,79.0,76.0,29.79,SSE,157,10.0,13.0,92,0.00,,,0.00,TxWx,2013-05-20 02:38:00,
2013-05-19 21:39:00,79.0,76.0,29.79,SSE,157,11.0,11.0,92,0.00,,,0.00,TxWx,2013-05-20 02:39:00,
2013-05-19 21:40:00,79.0,76.0,29.79,SSE,157,13.0,13.0,92,0.00,,,0.00,TxWx,2013-05-20 02:40:00,
2013-05-19 21:43:00,79.0,76.0,29.79,South,180,15.0,16.0,92,0.00,,,0.00,TxWx,2013-05-20 02:43:00,
2013-05-19 21:44:00,79.0,76.0,29.79,SE,135,11.0,11.0,92,0.00,,,0.00,TxWx,2013-05-20 02:44:00,
2013-05-19 21:45:00,79.0,76.0,29.79,SSE,157,8.0,8.0,92,0.00,,,0.00,TxWx,2013-05-20 02:45:00,
2013-05-19 21:46:00,79.0,76.0,29.79,South,180,13.0,13.0,92,0.00,,,0.00,TxWx,2013-05-20 02:46:00,
2013-05-19 21:50:00,79.0,76.0,29.79,South,180,8.0,9.0,92,0.00,,,0.00,TxWx,2013-05-20 02:50:00,
2013-05-19 21:51:00,79.0,76.0,29.79,SSE,157,7.0,7.0,92,0.00,,,0.00,TxWx,2013-05-20 02:51:00,
2013-05-19 21:52:00,79.0,76.0,29.79,SE,135,13.0,13.0,92,0.00,,,0.00,TxWx,2013-05-20 02:52:00,
2013-05-19 21:54:00,79.0,76.0,29.79,South,180,6.0,6.0,92,0.00,,,0.00,TxWx,2013-05-20 02:54:00,
2013-05-19 21:56:00,79.0,76.0,29.79,SSE,157,10.0,10.0,92,0.00,,,0.00,TxWx,2013-05-20 02:56:00,
2013-05-19 21:58:00,79.0,76.0,29.79,SSE,157,15.0,16.0,92,0.00,,,0.00,TxWx,2013-05-20 02:58:00,
2013-05-19 21:59:00,79.0,76.0,29.79,South,180,6.0,6.0,92,0.00,,,0.00,TxWx,2013-05-20 02:59:00,
2013-05-19 22:03:00,79.0,76.0,29.79,SSW,202,14.0,14.0,91,0.00,,,0.00,TxWx,2013-05-20 03:03:00,
2013-05-19 22:04:00,79.0,76.0,29.79,South,180,16.0,16.0,92,0.00,,,0.00,TxWx,2013-05-20 03:04:00,
2013-05-19 22:05:00,79.0,76.0,29.79,South,180,14.0,14.0,92,0.00,,,0.00,TxWx,2013-05-20 03:05:00,
2013-05-19 22:06:00,79.0,76.0,29.79,South,180,15.0,17.0,92,0.00,,,0.00,TxWx,2013-05-20 03:06:00,
2013-05-19 22:10:00,79.0,76.0,29.79,SSE,157,9.0,9.0,91,0.00,,,0.00,TxWx,2013-05-20 03:10:00,
2013-05-19 22:11:00,79.0,76.0,29.79,SE,135,7.0,10.0,91,0.00,,,0.00,TxWx,2013-05-20 03:11:00,
2013-05-19 22:12:00,79.0,76.0,29.79,South,180,14.0,14.0,91,0.00,,,0.00,TxWx,2013-05-20 03:12:00,
2013-05-19 22:15:00,79.0,76.0,29.79,South,180,6.0,9.0,91,0.00,,,0.00,TxWx,2013-05-20 03:15:00,
2013-05-19 22:16:00,79.0,76.0,29.79,SSE,157,11.0,11.0,91,0.00,,,0.00,TxWx,2013-05-20 03:16:00,
2013-05-19 22:18:00,79.0,76.0,29.79,South,180,11.0,13.0,91,0.00,,,0.00,TxWx,2013-05-20 03:18:00,
2013-05-19 22:20:00,79.0,76.0,29.79,South,180,17.0,17.0,92,0.00,,,0.00,TxWx,2013-05-20 03:20:00,
2013-05-19 22:21:00,79.0,76.0,29.79,South,180,10.0,10.0,92,0.00,,,0.00,TxWx,2013-05-20 03:21:00,
2013-05-19 22:22:00,79.0,76.0,29.79,South,180,13.0,13.0,92,0.00,,,0.00,TxWx,2013-05-20 03:22:00,
2013-05-19 22:24:00,79.0,76.0,29.79,South,180,11.0,11.0,91,0.00,,,0.00,TxWx,2013-05-20 03:24:00,
2013-05-19 22:26:00,79.0,76.0,29.80,South,180,6.0,7.0,92,0.00,,,0.00,TxWx,2013-05-20 03:26:00,
2013-05-19 22:27:00,79.0,76.0,29.80,SSW,202,11.0,12.0,92,0.00,,,0.00,TxWx,2013-05-20 03:27:00,
2013-05-19 22:29:00,79.0,76.0,29.80,South,180,10.0,10.0,92,0.00,,,0.00,TxWx,2013-05-20 03:29:00,
2013-05-19 22:30:00,79.0,76.0,29.80,SSE,157,6.0,7.0,92,0.00,,,0.00,TxWx,2013-05-20 03:30:00,
2013-05-19 22:34:00,79.0,76.0,29.79,South,180,11.0,11.0,92,0.00,,,0.00,TxWx,2013-05-20 03:34:00,
2013-05-19 22:35:00,79.0,76.0,29.80,SSE,157,16.0,16.0,92,0.00,,,0.00,TxWx,2013-05-20 03:35:00,
2013-05-19 22:39:00,79.0,76.0,29.80,South,180,16.0,16.0,92,0.00,,,0.00,TxWx,2013-05-20 03:39:00,
2013-05-19 22:40:00,79.0,76.0,29.80,SSE,157,19.0,20.0,92,0.00,,,0.00,TxWx,2013-05-20 03:40:00,
2013-05-19 22:41:00,79.0,76.0,29.80,SE,135,8.0,8.0,92,0.00,,,0.00,TxWx,2013-05-20 03:41:00,
2013-05-19 22:42:00,79.0,76.0,29.80,South,180,10.0,10.0,92,0.00,,,0.00,TxWx,2013-05-20 03:42:00,
2013-05-19 22:45:00,79.0,76.0,29.80,SE,135,11.0,12.0,92,0.00,,,0.00,TxWx,2013-05-20 03:45:00,
2013-05-19 22:46:00,79.0,76.0,29.80,South,180,9.0,10.0,92,0.00,,,0.00,TxWx,2013-05-20 03:46:00,
2013-05-19 22:47:00,79.0,76.0,29.80,South,180,12.0,12.0,92,0.00,,,0.00,TxWx,2013-05-20 03:47:00,
2013-05-19 22:49:00,79.0,76.0,29.80,SE,135,14.0,17.0,91,0.00,,,0.00,TxWx,2013-05-20 03:49:00,
2013-05-19 22:51:00,79.0,76.0,29.80,SE,135,8.0,10.0,91,0.00,,,0.00,TxWx,2013-05-20 03:51:00,
2013-05-19 22:53:00,79.0,76.0,29.80,SSW,202,13.0,13.0,92,0.00,,,0.00,TxWx,2013-05-20 03:53:00,
2013-05-19 22:54:00,79.0,76.0,29.80,SE,135,13.0,13.0,92,0.00,,,0.00,TxWx,2013-05-20 03:54:00,
2013-05-19 22:57:00,79.0,76.0,29.80,SSE,157,8.0,9.0,91,0.00,,,0.00,TxWx,2013-05-20 03:57:00,
2013-05-19 22:58:00,79.0,76.0,29.80,South,180,13.0,14.0,91,0.00,,,0.00,TxWx,2013-05-20 03:58:00,
2013-05-19 22:59:00,79.0,76.0,29.80,South,180,12.0,14.0,91,0.00,,,0.00,TxWx,2013-05-20 03:59:00,
2013-05-19 23:00:00,79.0,76.0,29.80,South,180,14.0,14.0,91,0.00,,,0.00,TxWx,2013-05-20 04:00:00,
2013-05-19 23:01:00,79.0,76.0,29.80,SE,135,9.0,9.0,91,0.00,,,0.00,TxWx,2013-05-20 04:01:00,
2013-05-19 23:02:00,79.0,76.0,29.80,SSW,202,13.0,13.0,91,0.00,,,0.00,TxWx,2013-05-20 04:02:00,
2013-05-19 23:03:00,79.0,76.0,29.80,SSW,202,8.0,8.0,91,0.00,,,0.00,TxWx,2013-05-20 04:03:00,
2013-05-19 23:06:00,79.0,76.0,29.80,SSE,157,9.0,11.0,92,0.00,,,0.00,TxWx,2013-05-20 04:06:00,
2013-05-19 23:08:00,79.0,76.0,29.80,SE,135,8.0,8.0,91,0.00,,,0.00,TxWx,2013-05-20 04:08:00,
2013-05-19 23:09:00,79.0,76.0,29.80,SE,135,6.0,6.0,91,0.00,,,0.00,TxWx,2013-05-20 04:09:00,
2013-05-19 23:11:00,79.0,76.0,29.80,SSE,157,10.0,13.0,91,0.00,,,0.00,TxWx,2013-05-20 04:11:00,
2013-05-19 23:13:00,79.0,76.0,29.79,SE,135,11.0,11.0,91,0.00,,,0.00,TxWx,2013-05-20 04:13:00,
2013-05-19 23:16:00,79.0,76.0,29.80,SSE,157,7.0,9.0,91,0.00,,,0.00,TxWx,2013-05-20 04:16:00,
2013-05-19 23:17:00,79.0,76.0,29.80,SSE,157,11.0,13.0,91,0.00,,,0.00,TxWx,2013-05-20 04:17:00,
2013-05-19 23:19:00,79.0,76.0,29.80,SSE,157,8.0,10.0,91,0.00,,,0.00,TxWx,2013-05-20 04:19:00,
2013-05-19 23:22:00,79.0,76.0,29.80,South,180,10.0,10.0,91,0.00,,,0.00,TxWx,2013-05-20 04:22:00,
2013-05-19 23:24:00,79.0,76.0,29.80,South,180,18.0,19.0,91,0.00,,,0.00,TxWx,2013-05-20 04:24:00,
2013-05-19 23:25:00,79.0,76.0,29.80,South,180,11.0,13.0,91,0.00,,,0.00,TxWx,2013-05-20 04:25:00,
2013-05-19 23:27:00,79.0,76.0,29.80,SE,135,6.0,6.0,91,0.00,,,0.00,TxWx,2013-05-20 04:27:00,
2013-05-19 23:30:00,79.0,76.0,29.80,SSE,157,11.0,12.0,91,0.00,,,0.00,TxWx,2013-05-20 04:30:00,
2013-05-19 23:31:00,79.0,76.0,29.80,SSE,157,13.0,13.0,91,0.00,,,0.00,TxWx,2013-05-20 04:31:00,
2013-05-19 23:32:00,79.0,76.0,29.80,ESE,112,13.0,13.0,91,0.00,,,0.00,TxWx,2013-05-20 04:32:00,
2013-05-19 23:33:00,79.0,76.0,29.80,SSE,157,14.0,14.0,91,0.00,,,0.00,TxWx,2013-05-20 04:33:00,
2013-05-19 23:36:00,79.0,76.0,29.79,SSE,157,13.0,13.0,91,0.00,,,0.00,TxWx,2013-05-20 04:36:00,
2013-05-19 23:38:00,79.0,76.0,29.79,SSE,157,10.0,10.0,91,0.00,,,0.00,TxWx,2013-05-20 04:38:00,
2013-05-19 23:39:00,79.0,76.0,29.79,SE,135,12.0,12.0,91,0.00,,,0.00,TxWx,2013-05-20 04:39:00,
2013-05-19 23:42:00,79.0,76.0,29.79,SSW,202,7.0,8.0,91,0.00,,,0.00,TxWx,2013-05-20 04:42:00,
2013-05-19 23:43:00,78.0,75.0,29.79,South,180,9.0,13.0,91,0.00,,,0.00,TxWx,2013-05-20 04:43:00,
2013-05-19 23:44:00,79.0,76.0,29.79,SSE,157,9.0,10.0,91,0.00,,,0.00,TxWx,2013-05-20 04:44:00,
2013-05-19 23:46:00,78.0,75.0,29.79,SW,225,10.0,10.0,91,0.00,,,0.00,TxWx,2013-05-20 04:46:00,
2013-05-19 23:47:00,78.0,75.0,29.79,South,180,13.0,13.0,91,0.00,,,0.00,TxWx,2013-05-20 04:47:00,
2013-05-19 23:48:00,78.0,75.0,29.79,South,180,14.0,17.0,91,0.00,,,0.00,TxWx,2013-05-20 04:48:00,
2013-05-19 23:49:00,78.0,75.0,29.79,South,180,10.0,11.0,91,0.00,,,0.00,TxWx,2013-05-20 04:49:00,
2013-05-19 23:50:00,78.0,75.0,29.79,SSE,157,10.0,11.0,91,0.00,,,0.00,TxWx,2013-05-20 04:50:00,
2013-05-19 23:52:00,78.0,75.0,29.79,SE,135,14.0,15.0,92,0.00,,,0.00,TxWx,2013-05-20 04:52:00,
2013-05-19 23:54:00,78.0,75.0,29.79,South,180,9.0,9.0,92,0.00,,,0.00,TxWx,2013-05-20 04:54:00,
2013-05-19 23:55:00,78.0,75.0,29.79,SSE,157,6.0,8.0,92,0.00,,,0.00,TxWx,2013-05-20 04:55:00,
2013-05-19 23:56:00,78.0,75.0,29.79,South,180,6.0,6.0,92,0.00,,,0.00,TxWx,2013-05-20 04:56:00,